<?xml version="1.0" encoding="UTF-8" standalone="no" ?>
<gpx xmlns="http://www.topografix.com/GPX/1/1" xmlns:xsi="http://www.w3.org/2001/XMLSchema-instance" xsi:schemaLocation="http://www.topografix.com/GPX/1/1 http://www.topografix.com/GPX/1/1/gpx.xsd" version="1.1" creator="VisuGPX - https://www.visugpx.com">
  <metadata>
    <name>2010 R3A</name>
  </metadata>
  <trk>
    <name><![CDATA[et 5-1-1]]></name>
    <trkseg>
      <trkpt lat="44.22602" lon="3.51501">
        <ele>1077</ele>
      </trkpt>
      <trkpt lat="44.22639" lon="3.51564">
        <ele>1077</ele>
      </trkpt>
      <trkpt lat="44.22645" lon="3.51602">
        <ele>1077</ele>
      </trkpt>
      <trkpt lat="44.22692" lon="3.51693">
        <ele>1077</ele>
      </trkpt>
      <trkpt lat="44.2271" lon="3.51831">
        <ele>1079</ele>
      </trkpt>
      <trkpt lat="44.2284" lon="3.52065">
        <ele>1079</ele>
      </trkpt>
      <trkpt lat="44.22871" lon="3.52357">
        <ele>1087</ele>
      </trkpt>
      <trkpt lat="44.22898" lon="3.52401">
        <ele>1094</ele>
      </trkpt>
      <trkpt lat="44.22886" lon="3.52419">
        <ele>1094</ele>
      </trkpt>
      <trkpt lat="44.22857" lon="3.52394">
        <ele>1089</ele>
      </trkpt>
      <trkpt lat="44.22769" lon="3.5243">
        <ele>1085</ele>
      </trkpt>
      <trkpt lat="44.22793" lon="3.52464">
        <ele>1089</ele>
      </trkpt>
      <trkpt lat="44.22748" lon="3.52542">
        <ele>1093</ele>
      </trkpt>
      <trkpt lat="44.22792" lon="3.52633">
        <ele>1102</ele>
      </trkpt>
      <trkpt lat="44.2276" lon="3.52679">
        <ele>1105</ele>
      </trkpt>
      <trkpt lat="44.2277" lon="3.52786">
        <ele>1106</ele>
      </trkpt>
      <trkpt lat="44.22884" lon="3.52842">
        <ele>1101</ele>
      </trkpt>
      <trkpt lat="44.22937" lon="3.52921">
        <ele>1103</ele>
      </trkpt>
      <trkpt lat="44.2294" lon="3.53018">
        <ele>1100</ele>
      </trkpt>
      <trkpt lat="44.22982" lon="3.53109">
        <ele>1099</ele>
      </trkpt>
      <trkpt lat="44.2304" lon="3.5332">
        <ele>1096</ele>
      </trkpt>
      <trkpt lat="44.23044" lon="3.53392">
        <ele>1092</ele>
      </trkpt>
      <trkpt lat="44.23087" lon="3.53559">
        <ele>1087</ele>
      </trkpt>
      <trkpt lat="44.23138" lon="3.53622">
        <ele>1090</ele>
      </trkpt>
      <trkpt lat="44.23135" lon="3.53688">
        <ele>1086</ele>
      </trkpt>
      <trkpt lat="44.23206" lon="3.53818">
        <ele>1088</ele>
      </trkpt>
      <trkpt lat="44.23222" lon="3.53962">
        <ele>1091</ele>
      </trkpt>
      <trkpt lat="44.23293" lon="3.54082">
        <ele>1094</ele>
      </trkpt>
      <trkpt lat="44.23307" lon="3.54223">
        <ele>1093</ele>
      </trkpt>
      <trkpt lat="44.2341" lon="3.54272">
        <ele>1094</ele>
      </trkpt>
      <trkpt lat="44.2347" lon="3.54364">
        <ele>1089</ele>
      </trkpt>
      <trkpt lat="44.23581" lon="3.54426">
        <ele>1092</ele>
      </trkpt>
      <trkpt lat="44.23665" lon="3.54578">
        <ele>1093</ele>
      </trkpt>
      <trkpt lat="44.23719" lon="3.54582">
        <ele>1098</ele>
      </trkpt>
      <trkpt lat="44.23756" lon="3.54674">
        <ele>1098</ele>
      </trkpt>
      <trkpt lat="44.23774" lon="3.54696">
        <ele>1098</ele>
      </trkpt>
      <trkpt lat="44.23796" lon="3.5475">
        <ele>1096</ele>
      </trkpt>
      <trkpt lat="44.23926" lon="3.54574">
        <ele>1117</ele>
      </trkpt>
      <trkpt lat="44.23978" lon="3.54569">
        <ele>1129</ele>
      </trkpt>
      <trkpt lat="44.24044" lon="3.5463">
        <ele>1142</ele>
      </trkpt>
      <trkpt lat="44.24157" lon="3.54645">
        <ele>1147</ele>
      </trkpt>
      <trkpt lat="44.24236" lon="3.54606">
        <ele>1163</ele>
      </trkpt>
      <trkpt lat="44.24323" lon="3.5462">
        <ele>1163</ele>
      </trkpt>
      <trkpt lat="44.24468" lon="3.54579">
        <ele>1162</ele>
      </trkpt>
      <trkpt lat="44.24633" lon="3.54492">
        <ele>1180</ele>
      </trkpt>
      <trkpt lat="44.24721" lon="3.54485">
        <ele>1182</ele>
      </trkpt>
      <trkpt lat="44.24882" lon="3.5451">
        <ele>1178</ele>
      </trkpt>
      <trkpt lat="44.24975" lon="3.54462">
        <ele>1172</ele>
      </trkpt>
      <trkpt lat="44.25143" lon="3.54528">
        <ele>1171</ele>
      </trkpt>
      <trkpt lat="44.25316" lon="3.54554">
        <ele>1162</ele>
      </trkpt>
      <trkpt lat="44.25414" lon="3.54597">
        <ele>1159</ele>
      </trkpt>
      <trkpt lat="44.25529" lon="3.54596">
        <ele>1151</ele>
      </trkpt>
      <trkpt lat="44.25564" lon="3.54619">
        <ele>1152</ele>
        <time>2007-05-12T00:36:56Z</time>
      </trkpt>
      <trkpt lat="44.25841" lon="3.54781">
        <ele>1155</ele>
        <time>2007-05-12T00:36:56Z</time>
      </trkpt>
      <trkpt lat="44.26177" lon="3.54901">
        <ele>1138</ele>
        <time>2007-05-12T00:36:56Z</time>
      </trkpt>
      <trkpt lat="44.26387" lon="3.5508">
        <ele>1120</ele>
        <time>2007-05-12T00:36:56Z</time>
      </trkpt>
      <trkpt lat="44.26467" lon="3.55082">
        <ele>1125</ele>
        <time>2007-05-12T00:36:56Z</time>
      </trkpt>
      <trkpt lat="44.26407" lon="3.55294">
        <ele>1117</ele>
        <time>2007-05-12T00:36:56Z</time>
      </trkpt>
      <trkpt lat="44.26438" lon="3.55751">
        <ele>1120</ele>
        <time>2007-05-12T00:36:56Z</time>
      </trkpt>
      <trkpt lat="44.26702" lon="3.56195">
        <ele>1124</ele>
        <time>2007-05-12T00:36:56Z</time>
      </trkpt>
      <trkpt lat="44.26882" lon="3.56574">
        <ele>1104</ele>
        <time>2007-05-12T00:36:56Z</time>
      </trkpt>
      <trkpt lat="44.2687" lon="3.56862">
        <ele>1056</ele>
        <time>2007-05-12T00:36:56Z</time>
      </trkpt>
      <trkpt lat="44.27012" lon="3.56608">
        <ele>1089</ele>
        <time>2007-05-12T00:36:56Z</time>
      </trkpt>
      <trkpt lat="44.27349" lon="3.57104">
        <ele>1039</ele>
        <time>2007-05-12T00:36:56Z</time>
      </trkpt>
      <trkpt lat="44.27776" lon="3.57501">
        <ele>1017</ele>
        <time>2007-05-12T00:36:56Z</time>
      </trkpt>
      <trkpt lat="44.27942" lon="3.57524">
        <ele>997</ele>
        <time>2007-05-12T00:36:56Z</time>
      </trkpt>
      <trkpt lat="44.28087" lon="3.57377">
        <ele>1023</ele>
        <time>2007-05-12T00:36:56Z</time>
      </trkpt>
      <trkpt lat="44.28163" lon="3.57097">
        <ele>1049</ele>
        <time>2007-05-12T00:36:56Z</time>
      </trkpt>
      <trkpt lat="44.28392" lon="3.5712">
        <ele>1067</ele>
        <time>2007-05-12T00:36:56Z</time>
      </trkpt>
      <trkpt lat="44.28653" lon="3.57439">
        <ele>1083</ele>
        <time>2007-05-12T00:36:56Z</time>
      </trkpt>
      <trkpt lat="44.28931" lon="3.57495">
        <ele>1087</ele>
        <time>2007-05-12T00:36:56Z</time>
      </trkpt>
      <trkpt lat="44.2906" lon="3.57661">
        <ele>1085</ele>
        <time>2007-05-12T00:36:56Z</time>
      </trkpt>
      <trkpt lat="44.29401" lon="3.58088">
        <ele>1082</ele>
        <time>2007-05-12T00:36:56Z</time>
      </trkpt>
      <trkpt lat="44.29518" lon="3.58084">
        <ele>1086</ele>
        <time>2007-05-12T00:36:56Z</time>
      </trkpt>
      <trkpt lat="44.29709" lon="3.58332">
        <ele>1078</ele>
        <time>2007-05-12T00:36:56Z</time>
      </trkpt>
      <trkpt lat="44.29704" lon="3.58708">
        <ele>1082</ele>
        <time>2009-07-09T14:34:13Z</time>
      </trkpt>
      <trkpt lat="44.29691" lon="3.58724">
        <ele>1078</ele>
        <time>2009-07-09T14:34:17Z</time>
      </trkpt>
      <trkpt lat="44.29687" lon="3.58728">
        <ele>1078</ele>
        <time>2009-07-09T14:34:18Z</time>
      </trkpt>
      <trkpt lat="44.29677" lon="3.5874">
        <ele>1074</ele>
        <time>2009-07-09T14:34:21Z</time>
      </trkpt>
      <trkpt lat="44.29669" lon="3.58747">
        <ele>1072</ele>
        <time>2009-07-09T14:34:23Z</time>
      </trkpt>
      <trkpt lat="44.29666" lon="3.58756">
        <ele>1072</ele>
        <time>2009-07-09T14:34:31Z</time>
      </trkpt>
      <trkpt lat="44.29664" lon="3.58761">
        <ele>1073</ele>
        <time>2009-07-09T14:34:49Z</time>
      </trkpt>
      <trkpt lat="44.29664" lon="3.58762">
        <ele>1074</ele>
        <time>2009-07-09T14:35:27Z</time>
      </trkpt>
      <trkpt lat="44.29678" lon="3.58764">
        <ele>1070</ele>
        <time>2009-07-09T14:35:37Z</time>
      </trkpt>
      <trkpt lat="44.29694" lon="3.5876">
        <ele>1066</ele>
        <time>2009-07-09T14:35:46Z</time>
      </trkpt>
      <trkpt lat="44.297" lon="3.58757">
        <ele>1065</ele>
        <time>2009-07-09T14:35:48Z</time>
      </trkpt>
      <trkpt lat="44.29711" lon="3.58755">
        <ele>1062</ele>
        <time>2009-07-09T14:35:52Z</time>
      </trkpt>
      <trkpt lat="44.29714" lon="3.58754">
        <ele>1062</ele>
        <time>2009-07-09T14:35:53Z</time>
      </trkpt>
      <trkpt lat="44.29737" lon="3.58748">
        <ele>1059</ele>
        <time>2009-07-09T14:35:59Z</time>
      </trkpt>
      <trkpt lat="44.29772" lon="3.5874">
        <ele>1055</ele>
        <time>2009-07-09T14:36:09Z</time>
      </trkpt>
      <trkpt lat="44.29796" lon="3.5874">
        <ele>1053</ele>
        <time>2009-07-09T14:36:16Z</time>
      </trkpt>
      <trkpt lat="44.29808" lon="3.58743">
        <ele>1051</ele>
        <time>2009-07-09T14:36:19Z</time>
      </trkpt>
      <trkpt lat="44.2984" lon="3.58767">
        <ele>1048</ele>
        <time>2009-07-09T14:36:28Z</time>
      </trkpt>
      <trkpt lat="44.29846" lon="3.58773">
        <ele>1045</ele>
        <time>2009-07-09T14:36:30Z</time>
      </trkpt>
      <trkpt lat="44.29853" lon="3.5878">
        <ele>1043</ele>
        <time>2009-07-09T14:36:32Z</time>
      </trkpt>
      <trkpt lat="44.29866" lon="3.58788">
        <ele>1039</ele>
        <time>2009-07-09T14:36:35Z</time>
      </trkpt>
      <trkpt lat="44.2987" lon="3.58789">
        <ele>1039</ele>
        <time>2009-07-09T14:36:36Z</time>
      </trkpt>
      <trkpt lat="44.29894" lon="3.58811">
        <ele>1036</ele>
        <time>2009-07-09T14:36:42Z</time>
      </trkpt>
      <trkpt lat="44.29902" lon="3.58836">
        <ele>1034</ele>
        <time>2009-07-09T14:36:47Z</time>
      </trkpt>
      <trkpt lat="44.29903" lon="3.58845">
        <ele>1034</ele>
        <time>2009-07-09T14:36:57Z</time>
      </trkpt>
      <trkpt lat="44.29904" lon="3.58846">
        <ele>1034</ele>
        <time>2009-07-09T14:37:12Z</time>
      </trkpt>
      <trkpt lat="44.29904" lon="3.58846">
        <ele>1033</ele>
        <time>2009-07-09T14:37:23Z</time>
      </trkpt>
      <trkpt lat="44.29901" lon="3.58846">
        <ele>1034</ele>
        <time>2009-07-09T14:37:32Z</time>
      </trkpt>
      <trkpt lat="44.299" lon="3.58845">
        <ele>1033</ele>
        <time>2009-07-09T14:37:34Z</time>
      </trkpt>
      <trkpt lat="44.29884" lon="3.58827">
        <ele>1029</ele>
        <time>2009-07-09T14:37:42Z</time>
      </trkpt>
      <trkpt lat="44.29877" lon="3.58821">
        <ele>1027</ele>
        <time>2009-07-09T14:37:45Z</time>
      </trkpt>
      <trkpt lat="44.29869" lon="3.58819">
        <ele>1026</ele>
        <time>2009-07-09T14:37:49Z</time>
      </trkpt>
      <trkpt lat="44.29873" lon="3.58832">
        <ele>1022</ele>
        <time>2009-07-09T14:37:54Z</time>
      </trkpt>
      <trkpt lat="44.29874" lon="3.58847">
        <ele>1019</ele>
        <time>2009-07-09T14:38:00Z</time>
      </trkpt>
      <trkpt lat="44.29865" lon="3.58838">
        <ele>1017</ele>
        <time>2009-07-09T14:38:05Z</time>
      </trkpt>
      <trkpt lat="44.2986" lon="3.58836">
        <ele>1015</ele>
        <time>2009-07-09T14:38:07Z</time>
      </trkpt>
      <trkpt lat="44.29848" lon="3.58837">
        <ele>1011</ele>
        <time>2009-07-09T14:38:12Z</time>
      </trkpt>
      <trkpt lat="44.29823" lon="3.58834">
        <ele>1008</ele>
        <time>2009-07-09T14:38:20Z</time>
      </trkpt>
      <trkpt lat="44.29809" lon="3.58836">
        <ele>1004</ele>
        <time>2009-07-09T14:38:25Z</time>
      </trkpt>
      <trkpt lat="44.29806" lon="3.58837">
        <ele>1004</ele>
        <time>2009-07-09T14:38:26Z</time>
      </trkpt>
      <trkpt lat="44.29799" lon="3.58837">
        <ele>1004</ele>
        <time>2009-07-09T14:38:29Z</time>
      </trkpt>
      <trkpt lat="44.29797" lon="3.5884">
        <ele>1002</ele>
        <time>2009-07-09T14:38:31Z</time>
      </trkpt>
      <trkpt lat="44.29804" lon="3.58842">
        <ele>1001</ele>
        <time>2009-07-09T14:38:34Z</time>
      </trkpt>
      <trkpt lat="44.29814" lon="3.58847">
        <ele>999</ele>
        <time>2009-07-09T14:38:37Z</time>
      </trkpt>
      <trkpt lat="44.29828" lon="3.58863">
        <ele>995</ele>
        <time>2009-07-09T14:38:43Z</time>
      </trkpt>
      <trkpt lat="44.29832" lon="3.58867">
        <ele>994</ele>
        <time>2009-07-09T14:38:45Z</time>
      </trkpt>
      <trkpt lat="44.29837" lon="3.58873">
        <ele>992</ele>
        <time>2009-07-09T14:38:48Z</time>
      </trkpt>
      <trkpt lat="44.29839" lon="3.58875">
        <ele>991</ele>
        <time>2009-07-09T14:38:49Z</time>
      </trkpt>
      <trkpt lat="44.2983" lon="3.58878">
        <ele>989</ele>
        <time>2009-07-09T14:38:56Z</time>
      </trkpt>
      <trkpt lat="44.29826" lon="3.58878">
        <ele>987</ele>
        <time>2009-07-09T14:38:58Z</time>
      </trkpt>
      <trkpt lat="44.29816" lon="3.58877">
        <ele>984</ele>
        <time>2009-07-09T14:39:02Z</time>
      </trkpt>
      <trkpt lat="44.29814" lon="3.58878">
        <ele>985</ele>
        <time>2009-07-09T14:39:03Z</time>
      </trkpt>
      <trkpt lat="44.29796" lon="3.58882">
        <ele>980</ele>
        <time>2009-07-09T14:39:10Z</time>
      </trkpt>
      <trkpt lat="44.29785" lon="3.58887">
        <ele>977</ele>
        <time>2009-07-09T14:39:14Z</time>
      </trkpt>
      <trkpt lat="44.29782" lon="3.58888">
        <ele>977</ele>
        <time>2009-07-09T14:39:15Z</time>
      </trkpt>
      <trkpt lat="44.2977" lon="3.5889">
        <ele>974</ele>
        <time>2009-07-09T14:39:18Z</time>
      </trkpt>
      <trkpt lat="44.29755" lon="3.58893">
        <ele>972</ele>
        <time>2009-07-09T14:39:22Z</time>
      </trkpt>
      <trkpt lat="44.29747" lon="3.58891">
        <ele>970</ele>
        <time>2009-07-09T14:39:24Z</time>
      </trkpt>
      <trkpt lat="44.29729" lon="3.58893">
        <ele>968</ele>
        <time>2009-07-09T14:39:29Z</time>
      </trkpt>
      <trkpt lat="44.29721" lon="3.58901">
        <ele>968</ele>
        <time>2009-07-09T14:39:32Z</time>
      </trkpt>
      <trkpt lat="44.29714" lon="3.58924">
        <ele>964</ele>
        <time>2009-07-09T14:39:37Z</time>
      </trkpt>
      <trkpt lat="44.29705" lon="3.58937">
        <ele>963</ele>
        <time>2009-07-09T14:39:45Z</time>
      </trkpt>
      <trkpt lat="44.29704" lon="3.58939">
        <ele>962</ele>
        <time>2009-07-09T14:39:57Z</time>
      </trkpt>
      <trkpt lat="44.29704" lon="3.58939">
        <ele>963</ele>
        <time>2009-07-09T14:40:27Z</time>
      </trkpt>
      <trkpt lat="44.29692" lon="3.58943">
        <ele>962</ele>
        <time>2009-07-09T14:41:01Z</time>
      </trkpt>
      <trkpt lat="44.29678" lon="3.58946">
        <ele>957</ele>
        <time>2009-07-09T14:41:05Z</time>
      </trkpt>
      <trkpt lat="44.29664" lon="3.58948">
        <ele>953</ele>
        <time>2009-07-09T14:41:09Z</time>
      </trkpt>
      <trkpt lat="44.29653" lon="3.58952">
        <ele>951</ele>
        <time>2009-07-09T14:41:13Z</time>
      </trkpt>
      <trkpt lat="44.29649" lon="3.58955">
        <ele>949</ele>
        <time>2009-07-09T14:41:15Z</time>
      </trkpt>
      <trkpt lat="44.29635" lon="3.58951">
        <ele>946</ele>
        <time>2009-07-09T14:41:22Z</time>
      </trkpt>
      <trkpt lat="44.29632" lon="3.58948">
        <ele>944</ele>
        <time>2009-07-09T14:41:29Z</time>
      </trkpt>
      <trkpt lat="44.29632" lon="3.58953">
        <ele>943</ele>
        <time>2009-07-09T14:41:36Z</time>
      </trkpt>
      <trkpt lat="44.2963" lon="3.58959">
        <ele>942</ele>
        <time>2009-07-09T14:41:40Z</time>
      </trkpt>
      <trkpt lat="44.29629" lon="3.5896">
        <ele>942</ele>
        <time>2009-07-09T14:41:41Z</time>
      </trkpt>
      <trkpt lat="44.29621" lon="3.58959">
        <ele>940</ele>
        <time>2009-07-09T14:41:55Z</time>
      </trkpt>
      <trkpt lat="44.29621" lon="3.58958">
        <ele>940</ele>
        <time>2009-07-09T14:41:59Z</time>
      </trkpt>
      <trkpt lat="44.29614" lon="3.5895">
        <ele>937</ele>
        <time>2009-07-09T14:42:04Z</time>
      </trkpt>
      <trkpt lat="44.29603" lon="3.58949">
        <ele>932</ele>
        <time>2009-07-09T14:42:10Z</time>
      </trkpt>
      <trkpt lat="44.29601" lon="3.58949">
        <ele>925</ele>
        <time>2009-07-09T14:42:11Z</time>
      </trkpt>
      <trkpt lat="44.29601" lon="3.5895">
        <ele>932</ele>
        <time>2009-07-09T14:42:12Z</time>
      </trkpt>
      <trkpt lat="44.29601" lon="3.5895">
        <ele>933</ele>
        <time>2009-07-09T14:42:14Z</time>
      </trkpt>
      <trkpt lat="44.29602" lon="3.5895">
        <ele>932</ele>
        <time>2009-07-09T14:42:17Z</time>
      </trkpt>
      <trkpt lat="44.29598" lon="3.5895">
        <ele>931</ele>
        <time>2009-07-09T14:42:23Z</time>
      </trkpt>
      <trkpt lat="44.29597" lon="3.58952">
        <ele>929</ele>
        <time>2009-07-09T14:42:25Z</time>
      </trkpt>
      <trkpt lat="44.29598" lon="3.58954">
        <ele>929</ele>
        <time>2009-07-09T14:42:28Z</time>
      </trkpt>
      <trkpt lat="44.29609" lon="3.58964">
        <ele>925</ele>
        <time>2009-07-09T14:42:34Z</time>
      </trkpt>
      <trkpt lat="44.29614" lon="3.5897">
        <ele>925</ele>
        <time>2009-07-09T14:42:37Z</time>
      </trkpt>
      <trkpt lat="44.29621" lon="3.58991">
        <ele>921</ele>
        <time>2009-07-09T14:42:45Z</time>
      </trkpt>
      <trkpt lat="44.29621" lon="3.58998">
        <ele>920</ele>
        <time>2009-07-09T14:42:47Z</time>
      </trkpt>
      <trkpt lat="44.29621" lon="3.59004">
        <ele>920</ele>
        <time>2009-07-09T14:42:49Z</time>
      </trkpt>
      <trkpt lat="44.29617" lon="3.59008">
        <ele>918</ele>
        <time>2009-07-09T14:42:52Z</time>
      </trkpt>
      <trkpt lat="44.29614" lon="3.59004">
        <ele>917</ele>
        <time>2009-07-09T14:42:54Z</time>
      </trkpt>
      <trkpt lat="44.29596" lon="3.58986">
        <ele>914</ele>
        <time>2009-07-09T14:43:03Z</time>
      </trkpt>
      <trkpt lat="44.2958" lon="3.58982">
        <ele>911</ele>
        <time>2009-07-09T14:43:09Z</time>
      </trkpt>
      <trkpt lat="44.29573" lon="3.58981">
        <ele>909</ele>
        <time>2009-07-09T14:43:12Z</time>
      </trkpt>
      <trkpt lat="44.29558" lon="3.5898">
        <ele>907</ele>
        <time>2009-07-09T14:43:18Z</time>
      </trkpt>
      <trkpt lat="44.29546" lon="3.58979">
        <ele>905</ele>
        <time>2009-07-09T14:43:24Z</time>
      </trkpt>
      <trkpt lat="44.29535" lon="3.5898">
        <ele>904</ele>
        <time>2009-07-09T14:43:29Z</time>
      </trkpt>
      <trkpt lat="44.29534" lon="3.58983">
        <ele>903</ele>
        <time>2009-07-09T14:43:31Z</time>
      </trkpt>
      <trkpt lat="44.29537" lon="3.58985">
        <ele>901</ele>
        <time>2009-07-09T14:43:33Z</time>
      </trkpt>
      <trkpt lat="44.29545" lon="3.5899">
        <ele>900</ele>
        <time>2009-07-09T14:43:37Z</time>
      </trkpt>
      <trkpt lat="44.29555" lon="3.59">
        <ele>897</ele>
        <time>2009-07-09T14:43:43Z</time>
      </trkpt>
      <trkpt lat="44.29557" lon="3.59001">
        <ele>897</ele>
        <time>2009-07-09T14:43:44Z</time>
      </trkpt>
      <trkpt lat="44.29562" lon="3.59004">
        <ele>895</ele>
        <time>2009-07-09T14:43:46Z</time>
      </trkpt>
      <trkpt lat="44.29577" lon="3.59011">
        <ele>894</ele>
        <time>2009-07-09T14:43:53Z</time>
      </trkpt>
      <trkpt lat="44.29578" lon="3.59017">
        <ele>890</ele>
        <time>2009-07-09T14:43:57Z</time>
      </trkpt>
      <trkpt lat="44.29574" lon="3.59019">
        <ele>889</ele>
        <time>2009-07-09T14:43:59Z</time>
      </trkpt>
      <trkpt lat="44.29562" lon="3.59021">
        <ele>888</ele>
        <time>2009-07-09T14:44:10Z</time>
      </trkpt>
      <trkpt lat="44.29562" lon="3.59021">
        <ele>887</ele>
        <time>2009-07-09T14:44:41Z</time>
      </trkpt>
      <trkpt lat="44.29561" lon="3.59022">
        <ele>886</ele>
        <time>2009-07-09T14:46:49Z</time>
      </trkpt>
      <trkpt lat="44.29561" lon="3.5902">
        <ele>885</ele>
        <time>2009-07-09T14:47:59Z</time>
      </trkpt>
      <trkpt lat="44.2955" lon="3.59022">
        <ele>884</ele>
        <time>2009-07-09T14:48:14Z</time>
      </trkpt>
      <trkpt lat="44.29548" lon="3.59023">
        <ele>884</ele>
        <time>2009-07-09T14:48:15Z</time>
      </trkpt>
      <trkpt lat="44.29542" lon="3.5902">
        <ele>883</ele>
        <time>2009-07-09T14:48:18Z</time>
      </trkpt>
      <trkpt lat="44.29536" lon="3.59021">
        <ele>880</ele>
        <time>2009-07-09T14:48:21Z</time>
      </trkpt>
      <trkpt lat="44.29527" lon="3.59024">
        <ele>878</ele>
        <time>2009-07-09T14:48:25Z</time>
      </trkpt>
      <trkpt lat="44.29514" lon="3.59031">
        <ele>874</ele>
        <time>2009-07-09T14:48:30Z</time>
      </trkpt>
      <trkpt lat="44.29504" lon="3.59036">
        <ele>872</ele>
        <time>2009-07-09T14:48:34Z</time>
      </trkpt>
      <trkpt lat="44.29483" lon="3.59041">
        <ele>868</ele>
        <time>2009-07-09T14:48:42Z</time>
      </trkpt>
      <trkpt lat="44.29473" lon="3.59041">
        <ele>867</ele>
        <time>2009-07-09T14:48:45Z</time>
      </trkpt>
      <trkpt lat="44.29449" lon="3.59045">
        <ele>864</ele>
        <time>2009-07-09T14:48:53Z</time>
      </trkpt>
      <trkpt lat="44.2944" lon="3.59046">
        <ele>860</ele>
        <time>2009-07-09T14:48:57Z</time>
      </trkpt>
      <trkpt lat="44.29437" lon="3.59047">
        <ele>860</ele>
        <time>2009-07-09T14:48:58Z</time>
      </trkpt>
      <trkpt lat="44.29423" lon="3.59051">
        <ele>857</ele>
        <time>2009-07-09T14:49:04Z</time>
      </trkpt>
      <trkpt lat="44.29421" lon="3.59052">
        <ele>857</ele>
        <time>2009-07-09T14:49:05Z</time>
      </trkpt>
      <trkpt lat="44.29413" lon="3.59052">
        <ele>854</ele>
        <time>2009-07-09T14:49:08Z</time>
      </trkpt>
      <trkpt lat="44.29407" lon="3.59056">
        <ele>853</ele>
        <time>2009-07-09T14:49:11Z</time>
      </trkpt>
      <trkpt lat="44.29398" lon="3.59058">
        <ele>850</ele>
        <time>2009-07-09T14:49:15Z</time>
      </trkpt>
      <trkpt lat="44.29392" lon="3.59058">
        <ele>849</ele>
        <time>2009-07-09T14:49:17Z</time>
      </trkpt>
      <trkpt lat="44.29388" lon="3.59058">
        <ele>847</ele>
        <time>2009-07-09T14:49:19Z</time>
      </trkpt>
      <trkpt lat="44.29386" lon="3.5906">
        <ele>846</ele>
        <time>2009-07-09T14:49:21Z</time>
      </trkpt>
      <trkpt lat="44.29388" lon="3.59067">
        <ele>843</ele>
        <time>2009-07-09T14:49:24Z</time>
      </trkpt>
      <trkpt lat="44.29389" lon="3.59071">
        <ele>843</ele>
        <time>2009-07-09T14:49:25Z</time>
      </trkpt>
      <trkpt lat="44.29404" lon="3.5908">
        <ele>841</ele>
        <time>2009-07-09T14:49:31Z</time>
      </trkpt>
      <trkpt lat="44.29409" lon="3.59081">
        <ele>840</ele>
        <time>2009-07-09T14:49:33Z</time>
      </trkpt>
      <trkpt lat="44.29411" lon="3.59086">
        <ele>838</ele>
        <time>2009-07-09T14:49:35Z</time>
      </trkpt>
      <trkpt lat="44.29398" lon="3.59096">
        <ele>835</ele>
        <time>2009-07-09T14:49:40Z</time>
      </trkpt>
      <trkpt lat="44.29394" lon="3.59097">
        <ele>833</ele>
        <time>2009-07-09T14:49:41Z</time>
      </trkpt>
      <trkpt lat="44.29385" lon="3.59099">
        <ele>831</ele>
        <time>2009-07-09T14:49:44Z</time>
      </trkpt>
      <trkpt lat="44.29385" lon="3.59094">
        <ele>832</ele>
        <time>2009-07-09T14:49:57Z</time>
      </trkpt>
      <trkpt lat="44.29386" lon="3.59095">
        <ele>831</ele>
        <time>2009-07-09T14:50:10Z</time>
      </trkpt>
      <trkpt lat="44.29386" lon="3.59096">
        <ele>830</ele>
        <time>2009-07-09T14:50:57Z</time>
      </trkpt>
      <trkpt lat="44.29387" lon="3.59098">
        <ele>831</ele>
        <time>2009-07-09T14:51:19Z</time>
      </trkpt>
      <trkpt lat="44.29387" lon="3.59102">
        <ele>831</ele>
        <time>2009-07-09T14:51:26Z</time>
      </trkpt>
      <trkpt lat="44.29389" lon="3.59105">
        <ele>830</ele>
        <time>2009-07-09T14:51:29Z</time>
      </trkpt>
      <trkpt lat="44.2939" lon="3.59104">
        <ele>828</ele>
        <time>2009-07-09T14:51:54Z</time>
      </trkpt>
      <trkpt lat="44.29394" lon="3.59102">
        <ele>830</ele>
        <time>2009-07-09T14:53:30Z</time>
      </trkpt>
      <trkpt lat="44.29415" lon="3.59119">
        <ele>825</ele>
        <time>2009-07-09T14:53:38Z</time>
      </trkpt>
      <trkpt lat="44.29424" lon="3.59129">
        <ele>822</ele>
        <time>2009-07-09T14:53:40Z</time>
      </trkpt>
      <trkpt lat="44.29447" lon="3.5916">
        <ele>819</ele>
        <time>2009-07-09T14:53:45Z</time>
      </trkpt>
      <trkpt lat="44.29467" lon="3.59188">
        <ele>815</ele>
        <time>2009-07-09T14:53:52Z</time>
      </trkpt>
      <trkpt lat="44.29473" lon="3.5919">
        <ele>813</ele>
        <time>2009-07-09T14:53:54Z</time>
      </trkpt>
      <trkpt lat="44.29495" lon="3.59187">
        <ele>808</ele>
        <time>2009-07-09T14:53:58Z</time>
      </trkpt>
      <trkpt lat="44.29502" lon="3.59184">
        <ele>808</ele>
        <time>2009-07-09T14:53:59Z</time>
      </trkpt>
      <trkpt lat="44.29514" lon="3.59174">
        <ele>805</ele>
        <time>2009-07-09T14:54:01Z</time>
      </trkpt>
      <trkpt lat="44.29549" lon="3.59179">
        <ele>802</ele>
        <time>2009-07-09T14:54:07Z</time>
      </trkpt>
      <trkpt lat="44.2956" lon="3.59188">
        <ele>801</ele>
        <time>2009-07-09T14:54:09Z</time>
      </trkpt>
      <trkpt lat="44.29576" lon="3.59206">
        <ele>800</ele>
        <time>2009-07-09T14:54:12Z</time>
      </trkpt>
      <trkpt lat="44.29605" lon="3.59249">
        <ele>798</ele>
        <time>2009-07-09T14:54:18Z</time>
      </trkpt>
      <trkpt lat="44.29629" lon="3.59267">
        <ele>794</ele>
        <time>2009-07-09T14:54:22Z</time>
      </trkpt>
      <trkpt lat="44.29649" lon="3.59275">
        <ele>790</ele>
        <time>2009-07-09T14:54:25Z</time>
      </trkpt>
      <trkpt lat="44.29662" lon="3.59279">
        <ele>788</ele>
        <time>2009-07-09T14:54:27Z</time>
      </trkpt>
      <trkpt lat="44.29692" lon="3.59274">
        <ele>784</ele>
        <time>2009-07-09T14:54:32Z</time>
      </trkpt>
      <trkpt lat="44.29723" lon="3.59273">
        <ele>782</ele>
        <time>2009-07-09T14:54:37Z</time>
      </trkpt>
      <trkpt lat="44.29738" lon="3.5929">
        <ele>781</ele>
        <time>2009-07-09T14:54:40Z</time>
      </trkpt>
      <trkpt lat="44.2975" lon="3.59297">
        <ele>780</ele>
        <time>2009-07-09T14:54:42Z</time>
      </trkpt>
      <trkpt lat="44.29782" lon="3.59329">
        <ele>782</ele>
        <time>2009-07-09T14:54:51Z</time>
      </trkpt>
      <trkpt lat="44.29804" lon="3.5936">
        <ele>786</ele>
        <time>2009-07-09T14:55:04Z</time>
      </trkpt>
      <trkpt lat="44.29818" lon="3.59377">
        <ele>788</ele>
        <time>2009-07-09T14:55:16Z</time>
      </trkpt>
      <trkpt lat="44.29815" lon="3.59379">
        <ele>787</ele>
        <time>2009-07-09T14:55:29Z</time>
      </trkpt>
      <trkpt lat="44.29815" lon="3.59379">
        <ele>791</ele>
        <time>2009-07-09T14:55:40Z</time>
      </trkpt>
      <trkpt lat="44.29815" lon="3.59379">
        <ele>791</ele>
        <time>2009-07-09T14:55:41Z</time>
      </trkpt>
      <trkpt lat="44.29815" lon="3.59379">
        <ele>788</ele>
        <time>2009-07-09T14:55:42Z</time>
      </trkpt>
      <trkpt lat="44.29815" lon="3.59379">
        <ele>791</ele>
        <time>2009-07-09T14:55:45Z</time>
      </trkpt>
      <trkpt lat="44.29815" lon="3.59379">
        <ele>788</ele>
        <time>2009-07-09T14:55:46Z</time>
      </trkpt>
      <trkpt lat="44.29813" lon="3.59378">
        <ele>787</ele>
        <time>2009-07-09T14:56:20Z</time>
      </trkpt>
      <trkpt lat="44.29821" lon="3.59387">
        <ele>788</ele>
        <time>2009-07-09T14:56:32Z</time>
      </trkpt>
      <trkpt lat="44.2983" lon="3.59397">
        <ele>789</ele>
        <time>2009-07-09T14:56:37Z</time>
      </trkpt>
      <trkpt lat="44.29849" lon="3.59418">
        <ele>793</ele>
        <time>2009-07-09T14:56:48Z</time>
      </trkpt>
      <trkpt lat="44.29886" lon="3.5944">
        <ele>794</ele>
        <time>2009-07-09T14:57:05Z</time>
      </trkpt>
      <trkpt lat="44.29923" lon="3.59433">
        <ele>791</ele>
        <time>2009-07-09T14:57:17Z</time>
      </trkpt>
      <trkpt lat="44.29942" lon="3.59427">
        <ele>790</ele>
        <time>2009-07-09T14:57:21Z</time>
      </trkpt>
      <trkpt lat="44.29963" lon="3.59428">
        <ele>789</ele>
        <time>2009-07-09T14:57:25Z</time>
      </trkpt>
      <trkpt lat="44.29998" lon="3.59441">
        <ele>786</ele>
        <time>2009-07-09T14:57:31Z</time>
      </trkpt>
      <trkpt lat="44.30028" lon="3.59431">
        <ele>785</ele>
        <time>2009-07-09T14:57:36Z</time>
      </trkpt>
      <trkpt lat="44.30092" lon="3.59378">
        <ele>782</ele>
        <time>2009-07-09T14:57:48Z</time>
      </trkpt>
      <trkpt lat="44.30112" lon="3.59353">
        <ele>780</ele>
        <time>2009-07-09T14:57:52Z</time>
      </trkpt>
      <trkpt lat="44.30123" lon="3.59328">
        <ele>778</ele>
        <time>2009-07-09T14:57:55Z</time>
      </trkpt>
      <trkpt lat="44.30125" lon="3.59318">
        <ele>778</ele>
        <time>2009-07-09T14:57:56Z</time>
      </trkpt>
      <trkpt lat="44.30144" lon="3.59234">
        <ele>777</ele>
        <time>2009-07-09T14:58:06Z</time>
      </trkpt>
      <trkpt lat="44.30173" lon="3.59195">
        <ele>776</ele>
        <time>2009-07-09T14:58:13Z</time>
      </trkpt>
      <trkpt lat="44.30177" lon="3.59191">
        <ele>777</ele>
        <time>2009-07-09T14:58:21Z</time>
      </trkpt>
      <trkpt lat="44.30175" lon="3.59191">
        <ele>774</ele>
        <time>2009-07-09T14:58:42Z</time>
      </trkpt>
      <trkpt lat="44.30176" lon="3.59187">
        <ele>774</ele>
        <time>2009-07-09T14:58:51Z</time>
      </trkpt>
      <trkpt lat="44.30179" lon="3.59185">
        <ele>774</ele>
        <time>2009-07-09T14:59:06Z</time>
      </trkpt>
      <trkpt lat="44.3019" lon="3.59177">
        <ele>774</ele>
        <time>2009-07-09T15:00:39Z</time>
      </trkpt>
      <trkpt lat="44.30195" lon="3.59172">
        <ele>773</ele>
        <time>2009-07-09T15:00:41Z</time>
      </trkpt>
      <trkpt lat="44.3023" lon="3.59157">
        <ele>772</ele>
        <time>2009-07-09T15:00:52Z</time>
      </trkpt>
      <trkpt lat="44.30266" lon="3.59157">
        <ele>770</ele>
        <time>2009-07-09T15:00:59Z</time>
      </trkpt>
      <trkpt lat="44.30301" lon="3.59128">
        <ele>768</ele>
        <time>2009-07-09T15:01:07Z</time>
      </trkpt>
      <trkpt lat="44.30325" lon="3.59105">
        <ele>766</ele>
        <time>2009-07-09T15:01:12Z</time>
      </trkpt>
      <trkpt lat="44.30347" lon="3.59082">
        <ele>763</ele>
        <time>2009-07-09T15:01:16Z</time>
      </trkpt>
      <trkpt lat="44.30366" lon="3.59064">
        <ele>760</ele>
        <time>2009-07-09T15:01:19Z</time>
      </trkpt>
      <trkpt lat="44.30385" lon="3.59047">
        <ele>758</ele>
        <time>2009-07-09T15:01:22Z</time>
      </trkpt>
      <trkpt lat="44.30403" lon="3.59028">
        <ele>756</ele>
        <time>2009-07-09T15:01:25Z</time>
      </trkpt>
      <trkpt lat="44.30418" lon="3.59023">
        <ele>756</ele>
        <time>2009-07-09T15:01:27Z</time>
      </trkpt>
      <trkpt lat="44.30456" lon="3.59032">
        <ele>755</ele>
        <time>2009-07-09T15:01:32Z</time>
      </trkpt>
      <trkpt lat="44.30469" lon="3.59039">
        <ele>755</ele>
        <time>2009-07-09T15:01:40Z</time>
      </trkpt>
      <trkpt lat="44.30467" lon="3.59039">
        <ele>755</ele>
        <time>2009-07-09T15:01:52Z</time>
      </trkpt>
      <trkpt lat="44.30476" lon="3.59054">
        <ele>755</ele>
        <time>2009-07-09T15:01:59Z</time>
      </trkpt>
      <trkpt lat="44.30482" lon="3.59058">
        <ele>754</ele>
        <time>2009-07-09T15:02:02Z</time>
      </trkpt>
      <trkpt lat="44.30485" lon="3.59062">
        <ele>756</ele>
        <time>2009-07-09T15:02:04Z</time>
      </trkpt>
      <trkpt lat="44.30498" lon="3.59091">
        <ele>756</ele>
        <time>2009-07-09T15:02:13Z</time>
      </trkpt>
      <trkpt lat="44.30502" lon="3.59096">
        <ele>757</ele>
        <time>2009-07-09T15:02:15Z</time>
      </trkpt>
      <trkpt lat="44.30529" lon="3.59131">
        <ele>759</ele>
        <time>2009-07-09T15:02:28Z</time>
      </trkpt>
      <trkpt lat="44.30534" lon="3.59147">
        <ele>758</ele>
        <time>2009-07-09T15:02:33Z</time>
      </trkpt>
      <trkpt lat="44.30543" lon="3.59167">
        <ele>757</ele>
        <time>2009-07-09T15:02:39Z</time>
      </trkpt>
      <trkpt lat="44.30577" lon="3.5922">
        <ele>756</ele>
        <time>2009-07-09T15:02:53Z</time>
      </trkpt>
      <trkpt lat="44.30603" lon="3.59257">
        <ele>758</ele>
        <time>2009-07-09T15:03:03Z</time>
      </trkpt>
      <trkpt lat="44.30609" lon="3.5927">
        <ele>759</ele>
        <time>2009-07-09T15:03:07Z</time>
      </trkpt>
      <trkpt lat="44.30627" lon="3.593">
        <ele>759</ele>
        <time>2009-07-09T15:03:15Z</time>
      </trkpt>
      <trkpt lat="44.30639" lon="3.5932">
        <ele>758</ele>
        <time>2009-07-09T15:03:20Z</time>
      </trkpt>
      <trkpt lat="44.30659" lon="3.59326">
        <ele>757</ele>
        <time>2009-07-09T15:03:25Z</time>
      </trkpt>
      <trkpt lat="44.30673" lon="3.59322">
        <ele>757</ele>
        <time>2009-07-09T15:03:28Z</time>
      </trkpt>
      <trkpt lat="44.30697" lon="3.59314">
        <ele>755</ele>
        <time>2009-07-09T15:03:32Z</time>
      </trkpt>
      <trkpt lat="44.30718" lon="3.59312">
        <ele>752</ele>
        <time>2009-07-09T15:03:35Z</time>
      </trkpt>
      <trkpt lat="44.30737" lon="3.59314">
        <ele>750</ele>
        <time>2009-07-09T15:03:38Z</time>
      </trkpt>
      <trkpt lat="44.30767" lon="3.59315">
        <ele>748</ele>
        <time>2009-07-09T15:03:46Z</time>
      </trkpt>
      <trkpt lat="44.30776" lon="3.59317">
        <ele>747</ele>
        <time>2009-07-09T15:03:48Z</time>
      </trkpt>
      <trkpt lat="44.308" lon="3.5932">
        <ele>743</ele>
        <time>2009-07-09T15:03:53Z</time>
      </trkpt>
      <trkpt lat="44.3081" lon="3.59322">
        <ele>742</ele>
        <time>2009-07-09T15:03:55Z</time>
      </trkpt>
      <trkpt lat="44.30824" lon="3.59323">
        <ele>737</ele>
        <time>2009-07-09T15:04:00Z</time>
      </trkpt>
      <trkpt lat="44.30817" lon="3.59333">
        <ele>736</ele>
        <time>2009-07-09T15:04:03Z</time>
      </trkpt>
      <trkpt lat="44.30804" lon="3.59343">
        <ele>734</ele>
        <time>2009-07-09T15:04:07Z</time>
      </trkpt>
      <trkpt lat="44.30801" lon="3.59345">
        <ele>734</ele>
        <time>2009-07-09T15:04:08Z</time>
      </trkpt>
      <trkpt lat="44.30807" lon="3.59349">
        <ele>732</ele>
        <time>2009-07-09T15:04:12Z</time>
      </trkpt>
      <trkpt lat="44.30825" lon="3.59346">
        <ele>731</ele>
        <time>2009-07-09T15:04:16Z</time>
      </trkpt>
      <trkpt lat="44.30838" lon="3.59342">
        <ele>729</ele>
        <time>2009-07-09T15:04:19Z</time>
      </trkpt>
      <trkpt lat="44.30849" lon="3.59357">
        <ele>726</ele>
        <time>2009-07-09T15:04:27Z</time>
      </trkpt>
      <trkpt lat="44.30844" lon="3.59373">
        <ele>725</ele>
        <time>2009-07-09T15:04:30Z</time>
      </trkpt>
      <trkpt lat="44.30841" lon="3.59377">
        <ele>722</ele>
        <time>2009-07-09T15:04:31Z</time>
      </trkpt>
      <trkpt lat="44.30815" lon="3.59394">
        <ele>719</ele>
        <time>2009-07-09T15:04:37Z</time>
      </trkpt>
      <trkpt lat="44.30797" lon="3.59403">
        <ele>717</ele>
        <time>2009-07-09T15:04:41Z</time>
      </trkpt>
      <trkpt lat="44.30805" lon="3.59411">
        <ele>714</ele>
        <time>2009-07-09T15:04:47Z</time>
      </trkpt>
      <trkpt lat="44.30817" lon="3.59413">
        <ele>712</ele>
        <time>2009-07-09T15:04:50Z</time>
      </trkpt>
      <trkpt lat="44.30846" lon="3.5941">
        <ele>710</ele>
        <time>2009-07-09T15:04:55Z</time>
      </trkpt>
      <trkpt lat="44.30882" lon="3.59393">
        <ele>707</ele>
        <time>2009-07-09T15:05:04Z</time>
      </trkpt>
      <trkpt lat="44.30889" lon="3.59389">
        <ele>706</ele>
        <time>2009-07-09T15:05:06Z</time>
      </trkpt>
      <trkpt lat="44.30889" lon="3.59398">
        <ele>703</ele>
        <time>2009-07-09T15:05:11Z</time>
      </trkpt>
      <trkpt lat="44.30885" lon="3.59405">
        <ele>702</ele>
        <time>2009-07-09T15:05:13Z</time>
      </trkpt>
      <trkpt lat="44.30882" lon="3.59409">
        <ele>702</ele>
        <time>2009-07-09T15:05:14Z</time>
      </trkpt>
      <trkpt lat="44.30867" lon="3.59424">
        <ele>699</ele>
        <time>2009-07-09T15:05:18Z</time>
      </trkpt>
      <trkpt lat="44.30872" lon="3.59427">
        <ele>699</ele>
        <time>2009-07-09T15:05:27Z</time>
      </trkpt>
      <trkpt lat="44.30883" lon="3.59421">
        <ele>698</ele>
        <time>2009-07-09T15:05:31Z</time>
      </trkpt>
      <trkpt lat="44.30899" lon="3.59411">
        <ele>695</ele>
        <time>2009-07-09T15:05:35Z</time>
      </trkpt>
      <trkpt lat="44.30906" lon="3.59403">
        <ele>695</ele>
        <time>2009-07-09T15:05:37Z</time>
      </trkpt>
      <trkpt lat="44.3091" lon="3.59395">
        <ele>693</ele>
        <time>2009-07-09T15:05:39Z</time>
      </trkpt>
      <trkpt lat="44.30918" lon="3.59375">
        <ele>690</ele>
        <time>2009-07-09T15:05:45Z</time>
      </trkpt>
      <trkpt lat="44.30919" lon="3.5939">
        <ele>687</ele>
        <time>2009-07-09T15:05:49Z</time>
      </trkpt>
      <trkpt lat="44.30919" lon="3.59396">
        <ele>686</ele>
        <time>2009-07-09T15:05:50Z</time>
      </trkpt>
      <trkpt lat="44.30917" lon="3.59425">
        <ele>683</ele>
        <time>2009-07-09T15:05:56Z</time>
      </trkpt>
      <trkpt lat="44.30916" lon="3.5943">
        <ele>682</ele>
        <time>2009-07-09T15:05:57Z</time>
      </trkpt>
      <trkpt lat="44.30915" lon="3.59446">
        <ele>677</ele>
        <time>2009-07-09T15:06:04Z</time>
      </trkpt>
      <trkpt lat="44.30918" lon="3.59444">
        <ele>677</ele>
        <time>2009-07-09T15:06:05Z</time>
      </trkpt>
      <trkpt lat="44.30928" lon="3.59436">
        <ele>674</ele>
        <time>2009-07-09T15:06:08Z</time>
      </trkpt>
      <trkpt lat="44.30934" lon="3.59428">
        <ele>673</ele>
        <time>2009-07-09T15:06:10Z</time>
      </trkpt>
      <trkpt lat="44.30945" lon="3.59409">
        <ele>668</ele>
        <time>2009-07-09T15:06:14Z</time>
      </trkpt>
      <trkpt lat="44.30953" lon="3.59392">
        <ele>665</ele>
        <time>2009-07-09T15:06:17Z</time>
      </trkpt>
      <trkpt lat="44.30958" lon="3.59379">
        <ele>663</ele>
        <time>2009-07-09T15:06:19Z</time>
      </trkpt>
      <trkpt lat="44.30962" lon="3.59365">
        <ele>662</ele>
        <time>2009-07-09T15:06:21Z</time>
      </trkpt>
      <trkpt lat="44.30967" lon="3.59337">
        <ele>659</ele>
        <time>2009-07-09T15:06:25Z</time>
      </trkpt>
      <trkpt lat="44.30971" lon="3.59324">
        <ele>657</ele>
        <time>2009-07-09T15:06:28Z</time>
      </trkpt>
      <trkpt lat="44.30977" lon="3.59321">
        <ele>656</ele>
        <time>2009-07-09T15:06:38Z</time>
      </trkpt>
      <trkpt lat="44.30979" lon="3.59322">
        <ele>655</ele>
        <time>2009-07-09T15:06:54Z</time>
      </trkpt>
      <trkpt lat="44.30979" lon="3.59326">
        <ele>656</ele>
        <time>2009-07-09T15:07:13Z</time>
      </trkpt>
      <trkpt lat="44.30978" lon="3.59329">
        <ele>656</ele>
        <time>2009-07-09T15:07:29Z</time>
      </trkpt>
      <trkpt lat="44.30978" lon="3.5933">
        <ele>655</ele>
        <time>2009-07-09T15:08:22Z</time>
      </trkpt>
      <trkpt lat="44.30978" lon="3.5933">
        <ele>654</ele>
        <time>2009-07-09T15:08:37Z</time>
      </trkpt>
      <trkpt lat="44.30978" lon="3.59335">
        <ele>654</ele>
        <time>2009-07-09T15:08:53Z</time>
      </trkpt>
      <trkpt lat="44.30979" lon="3.59342">
        <ele>652</ele>
        <time>2009-07-09T15:08:55Z</time>
      </trkpt>
      <trkpt lat="44.30979" lon="3.59368">
        <ele>649</ele>
        <time>2009-07-09T15:09:02Z</time>
      </trkpt>
      <trkpt lat="44.30983" lon="3.59412">
        <ele>644</ele>
        <time>2009-07-09T15:09:09Z</time>
      </trkpt>
      <trkpt lat="44.3098" lon="3.59442">
        <ele>641</ele>
        <time>2009-07-09T15:09:13Z</time>
      </trkpt>
      <trkpt lat="44.30977" lon="3.59458">
        <ele>640</ele>
        <time>2009-07-09T15:09:15Z</time>
      </trkpt>
      <trkpt lat="44.3097" lon="3.59481">
        <ele>638</ele>
        <time>2009-07-09T15:09:18Z</time>
      </trkpt>
      <trkpt lat="44.30963" lon="3.59503">
        <ele>637</ele>
        <time>2009-07-09T15:09:22Z</time>
      </trkpt>
      <trkpt lat="44.30975" lon="3.5949">
        <ele>637</ele>
        <time>2009-07-09T15:09:28Z</time>
      </trkpt>
      <trkpt lat="44.31009" lon="3.59426">
        <ele>634</ele>
        <time>2009-07-09T15:09:42Z</time>
      </trkpt>
      <trkpt lat="44.31035" lon="3.59413">
        <ele>636</ele>
        <time>2009-07-09T15:09:54Z</time>
      </trkpt>
      <trkpt lat="44.31035" lon="3.59413">
        <ele>636</ele>
        <time>2009-07-09T15:10:08Z</time>
      </trkpt>
      <trkpt lat="44.31035" lon="3.59413">
        <ele>636</ele>
        <time>2009-07-09T15:10:11Z</time>
      </trkpt>
      <trkpt lat="44.31023" lon="3.59416">
        <ele>635</ele>
        <time>2009-07-09T15:10:16Z</time>
      </trkpt>
      <trkpt lat="44.31017" lon="3.59441">
        <ele>632</ele>
        <time>2009-07-09T15:10:26Z</time>
      </trkpt>
      <trkpt lat="44.31012" lon="3.59481">
        <ele>630</ele>
        <time>2009-07-09T15:10:39Z</time>
      </trkpt>
      <trkpt lat="44.31013" lon="3.59481">
        <ele>630</ele>
        <time>2009-07-09T15:10:55Z</time>
      </trkpt>
      <trkpt lat="44.31013" lon="3.59481">
        <ele>627</ele>
        <time>2009-07-09T15:11:01Z</time>
      </trkpt>
      <trkpt lat="44.31013" lon="3.59481">
        <ele>631</ele>
        <time>2009-07-09T15:11:02Z</time>
      </trkpt>
      <trkpt lat="44.31013" lon="3.59481">
        <ele>629</ele>
        <time>2009-07-09T15:11:06Z</time>
      </trkpt>
      <trkpt lat="44.31013" lon="3.5948">
        <ele>630</ele>
        <time>2009-07-09T15:11:08Z</time>
      </trkpt>
      <trkpt lat="44.31013" lon="3.5948">
        <ele>630</ele>
        <time>2009-07-09T15:11:12Z</time>
      </trkpt>
      <trkpt lat="44.31013" lon="3.59478">
        <ele>629</ele>
        <time>2009-07-09T15:11:48Z</time>
      </trkpt>
      <trkpt lat="44.31014" lon="3.59475">
        <ele>629</ele>
        <time>2009-07-09T15:11:55Z</time>
      </trkpt>
      <trkpt lat="44.31014" lon="3.59467">
        <ele>630</ele>
        <time>2009-07-09T15:11:59Z</time>
      </trkpt>
      <trkpt lat="44.31016" lon="3.59421">
        <ele>634</ele>
        <time>2009-07-09T15:12:14Z</time>
      </trkpt>
      <trkpt lat="44.31036" lon="3.59409">
        <ele>636</ele>
        <time>2009-07-09T15:12:26Z</time>
      </trkpt>
      <trkpt lat="44.31045" lon="3.5941">
        <ele>639</ele>
        <time>2009-07-09T15:12:32Z</time>
      </trkpt>
      <trkpt lat="44.31057" lon="3.59414">
        <ele>641</ele>
        <time>2009-07-09T15:12:40Z</time>
      </trkpt>
      <trkpt lat="44.31082" lon="3.5943">
        <ele>642</ele>
        <time>2009-07-09T15:12:57Z</time>
      </trkpt>
      <trkpt lat="44.31104" lon="3.59446">
        <ele>646</ele>
        <time>2009-07-09T15:13:12Z</time>
      </trkpt>
      <trkpt lat="44.31105" lon="3.59447">
        <ele>646</ele>
        <time>2009-07-09T15:13:13Z</time>
      </trkpt>
      <trkpt lat="44.3112" lon="3.59461">
        <ele>646</ele>
        <time>2009-07-09T15:13:29Z</time>
      </trkpt>
      <trkpt lat="44.3112" lon="3.59461">
        <ele>647</ele>
        <time>2009-07-09T15:13:53Z</time>
      </trkpt>
      <trkpt lat="44.31121" lon="3.59462">
        <ele>647</ele>
        <time>2009-07-09T15:14:29Z</time>
      </trkpt>
      <trkpt lat="44.31128" lon="3.59464">
        <ele>648</ele>
        <time>2009-07-09T15:14:34Z</time>
      </trkpt>
      <trkpt lat="44.31151" lon="3.59439">
        <ele>649</ele>
        <time>2009-07-09T15:14:49Z</time>
      </trkpt>
      <trkpt lat="44.31168" lon="3.59403">
        <ele>650</ele>
        <time>2009-07-09T15:15:04Z</time>
      </trkpt>
      <trkpt lat="44.31169" lon="3.59401">
        <ele>651</ele>
        <time>2009-07-09T15:15:05Z</time>
      </trkpt>
      <trkpt lat="44.31178" lon="3.59377">
        <ele>654</ele>
        <time>2009-07-09T15:15:16Z</time>
      </trkpt>
      <trkpt lat="44.31192" lon="3.59337">
        <ele>655</ele>
        <time>2009-07-09T15:15:31Z</time>
      </trkpt>
      <trkpt lat="44.31194" lon="3.59333">
        <ele>654</ele>
        <time>2009-07-09T15:15:32Z</time>
      </trkpt>
      <trkpt lat="44.31212" lon="3.59311">
        <ele>656</ele>
        <time>2009-07-09T15:15:42Z</time>
      </trkpt>
      <trkpt lat="44.31213" lon="3.59315">
        <ele>656</ele>
        <time>2009-07-09T15:16:02Z</time>
      </trkpt>
      <trkpt lat="44.31211" lon="3.59317">
        <ele>655</ele>
        <time>2009-07-09T15:16:09Z</time>
      </trkpt>
      <trkpt lat="44.31193" lon="3.59336">
        <ele>655</ele>
        <time>2009-07-09T15:16:21Z</time>
      </trkpt>
      <trkpt lat="44.31179" lon="3.59365">
        <ele>656</ele>
        <time>2009-07-09T15:16:37Z</time>
      </trkpt>
      <trkpt lat="44.31176" lon="3.5937">
        <ele>656</ele>
        <time>2009-07-09T15:16:48Z</time>
      </trkpt>
      <trkpt lat="44.31171" lon="3.5939">
        <ele>652</ele>
        <time>2009-07-09T15:16:53Z</time>
      </trkpt>
      <trkpt lat="44.31169" lon="3.59398">
        <ele>652</ele>
        <time>2009-07-09T15:16:54Z</time>
      </trkpt>
      <trkpt lat="44.31159" lon="3.59417">
        <ele>650</ele>
        <time>2009-07-09T15:17:02Z</time>
      </trkpt>
      <trkpt lat="44.31161" lon="3.59417">
        <ele>649</ele>
        <time>2009-07-09T15:17:07Z</time>
      </trkpt>
      <trkpt lat="44.31164" lon="3.59416">
        <ele>648</ele>
        <time>2009-07-09T15:17:10Z</time>
      </trkpt>
      <trkpt lat="44.31172" lon="3.5941">
        <ele>647</ele>
        <time>2009-07-09T15:17:27Z</time>
      </trkpt>
      <trkpt lat="44.31182" lon="3.59399">
        <ele>644</ele>
        <time>2009-07-09T15:17:31Z</time>
      </trkpt>
      <trkpt lat="44.31189" lon="3.59393">
        <ele>643</ele>
        <time>2009-07-09T15:17:33Z</time>
      </trkpt>
      <trkpt lat="44.312" lon="3.59382">
        <ele>642</ele>
        <time>2009-07-09T15:17:38Z</time>
      </trkpt>
      <trkpt lat="44.31206" lon="3.59379">
        <ele>639</ele>
        <time>2009-07-09T15:17:41Z</time>
      </trkpt>
      <trkpt lat="44.31208" lon="3.59379">
        <ele>639</ele>
        <time>2009-07-09T15:17:42Z</time>
      </trkpt>
      <trkpt lat="44.31209" lon="3.59375">
        <ele>638</ele>
        <time>2009-07-09T15:17:46Z</time>
      </trkpt>
      <trkpt lat="44.31225" lon="3.59405">
        <ele>638</ele>
        <time>2009-07-09T15:17:58Z</time>
      </trkpt>
      <trkpt lat="44.31247" lon="3.59447">
        <ele>639</ele>
        <time>2009-07-09T15:18:11Z</time>
      </trkpt>
      <trkpt lat="44.31271" lon="3.59473">
        <ele>639</ele>
        <time>2009-07-09T15:18:23Z</time>
      </trkpt>
      <trkpt lat="44.3128" lon="3.59486">
        <ele>638</ele>
        <time>2009-07-09T15:18:29Z</time>
      </trkpt>
      <trkpt lat="44.31288" lon="3.59497">
        <ele>634</ele>
        <time>2009-07-09T15:18:34Z</time>
      </trkpt>
      <trkpt lat="44.31293" lon="3.59507">
        <ele>632</ele>
        <time>2009-07-09T15:18:37Z</time>
      </trkpt>
      <trkpt lat="44.31296" lon="3.59511">
        <ele>631</ele>
        <time>2009-07-09T15:18:39Z</time>
      </trkpt>
      <trkpt lat="44.31301" lon="3.59515">
        <ele>630</ele>
        <time>2009-07-09T15:18:41Z</time>
      </trkpt>
      <trkpt lat="44.31336" lon="3.59544">
        <ele>630</ele>
        <time>2009-07-09T15:18:54Z</time>
      </trkpt>
      <trkpt lat="44.31342" lon="3.59551">
        <ele>630</ele>
        <time>2009-07-09T15:18:57Z</time>
      </trkpt>
      <trkpt lat="44.31367" lon="3.5956">
        <ele>629</ele>
        <time>2009-07-09T15:19:08Z</time>
      </trkpt>
      <trkpt lat="44.31382" lon="3.59568">
        <ele>626</ele>
        <time>2009-07-09T15:19:13Z</time>
      </trkpt>
      <trkpt lat="44.31401" lon="3.59579">
        <ele>625</ele>
        <time>2009-07-09T15:19:22Z</time>
      </trkpt>
      <trkpt lat="44.31409" lon="3.59583">
        <ele>623</ele>
        <time>2009-07-09T15:19:29Z</time>
      </trkpt>
      <trkpt lat="44.31417" lon="3.59589">
        <ele>620</ele>
        <time>2009-07-09T15:19:42Z</time>
      </trkpt>
      <trkpt lat="44.31418" lon="3.5959">
        <ele>619</ele>
        <time>2009-07-09T15:19:43Z</time>
      </trkpt>
      <trkpt lat="44.31421" lon="3.59596">
        <ele>618</ele>
        <time>2009-07-09T15:19:45Z</time>
      </trkpt>
      <trkpt lat="44.31431" lon="3.59606">
        <ele>616</ele>
        <time>2009-07-09T15:19:49Z</time>
      </trkpt>
      <trkpt lat="44.31441" lon="3.59615">
        <ele>612</ele>
        <time>2009-07-09T15:19:53Z</time>
      </trkpt>
      <trkpt lat="44.31451" lon="3.59624">
        <ele>609</ele>
        <time>2009-07-09T15:19:57Z</time>
      </trkpt>
      <trkpt lat="44.31459" lon="3.59627">
        <ele>607</ele>
        <time>2009-07-09T15:19:59Z</time>
      </trkpt>
      <trkpt lat="44.31474" lon="3.59627">
        <ele>606</ele>
        <time>2009-07-09T15:20:04Z</time>
      </trkpt>
      <trkpt lat="44.31483" lon="3.59626">
        <ele>604</ele>
        <time>2009-07-09T15:20:14Z</time>
      </trkpt>
      <trkpt lat="44.31488" lon="3.59641">
        <ele>603</ele>
        <time>2009-07-09T15:20:25Z</time>
      </trkpt>
      <trkpt lat="44.3149" lon="3.59645">
        <ele>603</ele>
        <time>2009-07-09T15:20:27Z</time>
      </trkpt>
      <trkpt lat="44.31502" lon="3.59667">
        <ele>602</ele>
        <time>2009-07-09T15:20:37Z</time>
      </trkpt>
      <trkpt lat="44.31509" lon="3.597">
        <ele>602</ele>
        <time>2009-07-09T15:20:49Z</time>
      </trkpt>
      <trkpt lat="44.3151" lon="3.59704">
        <ele>602</ele>
        <time>2009-07-09T15:20:50Z</time>
      </trkpt>
      <trkpt lat="44.31536" lon="3.59712">
        <ele>598</ele>
        <time>2009-07-09T15:21:00Z</time>
      </trkpt>
      <trkpt lat="44.31544" lon="3.59712">
        <ele>595</ele>
        <time>2009-07-09T15:21:03Z</time>
      </trkpt>
      <trkpt lat="44.31554" lon="3.59714">
        <ele>593</ele>
        <time>2009-07-09T15:21:06Z</time>
      </trkpt>
      <trkpt lat="44.31574" lon="3.59732">
        <ele>590</ele>
        <time>2009-07-09T15:21:14Z</time>
      </trkpt>
      <trkpt lat="44.31584" lon="3.59754">
        <ele>587</ele>
        <time>2009-07-09T15:21:20Z</time>
      </trkpt>
      <trkpt lat="44.31585" lon="3.59757">
        <ele>586</ele>
        <time>2009-07-09T15:21:21Z</time>
      </trkpt>
      <trkpt lat="44.31587" lon="3.59762">
        <ele>585</ele>
        <time>2009-07-09T15:21:23Z</time>
      </trkpt>
      <trkpt lat="44.31592" lon="3.59771">
        <ele>582</ele>
        <time>2009-07-09T15:21:29Z</time>
      </trkpt>
      <trkpt lat="44.31601" lon="3.59774">
        <ele>578</ele>
        <time>2009-07-09T15:21:32Z</time>
      </trkpt>
      <trkpt lat="44.31615" lon="3.59781">
        <ele>575</ele>
        <time>2009-07-09T15:21:36Z</time>
      </trkpt>
      <trkpt lat="44.3163" lon="3.59788">
        <ele>572</ele>
        <time>2009-07-09T15:21:40Z</time>
      </trkpt>
      <trkpt lat="44.31639" lon="3.59794">
        <ele>569</ele>
        <time>2009-07-09T15:21:44Z</time>
      </trkpt>
      <trkpt lat="44.31647" lon="3.59799">
        <ele>566</ele>
        <time>2009-07-09T15:21:47Z</time>
      </trkpt>
      <trkpt lat="44.31656" lon="3.59804">
        <ele>563</ele>
        <time>2009-07-09T15:21:50Z</time>
      </trkpt>
      <trkpt lat="44.31658" lon="3.59805">
        <ele>563</ele>
        <time>2009-07-09T15:21:51Z</time>
      </trkpt>
      <trkpt lat="44.3167" lon="3.59804">
        <ele>563</ele>
        <time>2009-07-09T15:22:01Z</time>
      </trkpt>
      <trkpt lat="44.31669" lon="3.59804">
        <ele>563</ele>
        <time>2009-07-09T15:22:16Z</time>
      </trkpt>
      <trkpt lat="44.3167" lon="3.59805">
        <ele>561</ele>
        <time>2009-07-09T15:22:44Z</time>
      </trkpt>
      <trkpt lat="44.3167" lon="3.59805">
        <ele>562</ele>
        <time>2009-07-09T15:23:32Z</time>
      </trkpt>
      <trkpt lat="44.31689" lon="3.5981">
        <ele>559</ele>
        <time>2009-07-09T15:24:39Z</time>
      </trkpt>
      <trkpt lat="44.31704" lon="3.59814">
        <ele>557</ele>
      </trkpt>
      <trkpt lat="44.3197" lon="3.59763">
        <ele>559</ele>
      </trkpt>
      <trkpt lat="44.32117" lon="3.59666">
        <ele>553</ele>
      </trkpt>
      <trkpt lat="44.32324" lon="3.59477">
        <ele>548</ele>
      </trkpt>
      <trkpt lat="44.32397" lon="3.59425">
        <ele>548</ele>
      </trkpt>
      <trkpt lat="44.32466" lon="3.59439">
        <ele>546</ele>
      </trkpt>
      <trkpt lat="44.3249" lon="3.59503">
        <ele>542</ele>
      </trkpt>
      <trkpt lat="44.33087" lon="3.5904">
        <ele>540</ele>
      </trkpt>
      <trkpt lat="44.33162" lon="3.59113">
        <ele>576</ele>
      </trkpt>
      <trkpt lat="44.33194" lon="3.59064">
        <ele>574</ele>
      </trkpt>
      <trkpt lat="44.33291" lon="3.59041">
        <ele>594</ele>
      </trkpt>
      <trkpt lat="44.33284" lon="3.59066">
        <ele>598</ele>
      </trkpt>
      <trkpt lat="44.33325" lon="3.59061">
        <ele>597</ele>
      </trkpt>
      <trkpt lat="44.33453" lon="3.5907">
        <ele>586</ele>
      </trkpt>
      <trkpt lat="44.33508" lon="3.59152">
        <ele>568</ele>
      </trkpt>
      <trkpt lat="44.33519" lon="3.59225">
        <ele>568</ele>
      </trkpt>
      <trkpt lat="44.33509" lon="3.59303">
        <ele>584</ele>
      </trkpt>
      <trkpt lat="44.33601" lon="3.59302">
        <ele>552</ele>
      </trkpt>
      <trkpt lat="44.33687" lon="3.59604">
        <ele>574</ele>
      </trkpt>
      <trkpt lat="44.33772" lon="3.59681">
        <ele>590</ele>
      </trkpt>
      <trkpt lat="44.33999" lon="3.59712">
        <ele>609</ele>
      </trkpt>
      <trkpt lat="44.34145" lon="3.59662">
        <ele>615</ele>
      </trkpt>
      <trkpt lat="44.34281" lon="3.59574">
        <ele>598</ele>
      </trkpt>
      <trkpt lat="44.34333" lon="3.59606">
        <ele>578</ele>
      </trkpt>
      <trkpt lat="44.3433" lon="3.59813">
        <ele>591</ele>
      </trkpt>
      <trkpt lat="44.34371" lon="3.59971">
        <ele>569</ele>
      </trkpt>
      <trkpt lat="44.34328" lon="3.60208">
        <ele>564</ele>
      </trkpt>
      <trkpt lat="44.34369" lon="3.60193">
        <ele>560</ele>
      </trkpt>
      <trkpt lat="44.34387" lon="3.60131">
        <ele>559</ele>
      </trkpt>
      <trkpt lat="44.34489" lon="3.60105">
        <ele>559</ele>
      </trkpt>
      <trkpt lat="44.34525" lon="3.60265">
        <ele>563</ele>
      </trkpt>
      <trkpt lat="44.34648" lon="3.60541">
        <ele>576</ele>
      </trkpt>
      <trkpt lat="44.34635" lon="3.60719">
        <ele>571</ele>
      </trkpt>
      <trkpt lat="44.34532" lon="3.60996">
        <ele>569</ele>
      </trkpt>
      <trkpt lat="44.34693" lon="3.6114">
        <ele>607</ele>
      </trkpt>
      <trkpt lat="44.3484" lon="3.61194">
        <ele>638</ele>
      </trkpt>
      <trkpt lat="44.34797" lon="3.61243">
        <ele>622</ele>
      </trkpt>
      <trkpt lat="44.34864" lon="3.61269">
        <ele>644</ele>
      </trkpt>
      <trkpt lat="44.3513" lon="3.61244">
        <ele>687</ele>
      </trkpt>
      <trkpt lat="44.35294" lon="3.61025">
        <ele>707</ele>
      </trkpt>
      <trkpt lat="44.35394" lon="3.60805">
        <ele>726</ele>
      </trkpt>
      <trkpt lat="44.35441" lon="3.60794">
        <ele>714</ele>
      </trkpt>
      <trkpt lat="44.35487" lon="3.60735">
        <ele>721</ele>
      </trkpt>
      <trkpt lat="44.35565" lon="3.60712">
        <ele>727</ele>
      </trkpt>
      <trkpt lat="44.35776" lon="3.60413">
        <ele>737</ele>
      </trkpt>
      <trkpt lat="44.35779" lon="3.60297">
        <ele>737</ele>
      </trkpt>
      <trkpt lat="44.3584" lon="3.60101">
        <ele>728</ele>
      </trkpt>
      <trkpt lat="44.35837" lon="3.59997">
        <ele>738</ele>
      </trkpt>
      <trkpt lat="44.35903" lon="3.59883">
        <ele>730</ele>
      </trkpt>
      <trkpt lat="44.35934" lon="3.59777">
        <ele>738</ele>
      </trkpt>
      <trkpt lat="44.35972" lon="3.59737">
        <ele>729</ele>
      </trkpt>
      <trkpt lat="44.35976" lon="3.59655">
        <ele>745</ele>
      </trkpt>
      <trkpt lat="44.36026" lon="3.59613">
        <ele>742</ele>
      </trkpt>
      <trkpt lat="44.36042" lon="3.59528">
        <ele>751</ele>
      </trkpt>
      <trkpt lat="44.36237" lon="3.59454">
        <ele>751</ele>
      </trkpt>
      <trkpt lat="44.36312" lon="3.59325">
        <ele>762</ele>
      </trkpt>
      <trkpt lat="44.36348" lon="3.59175">
        <ele>781</ele>
      </trkpt>
      <trkpt lat="44.36407" lon="3.59126">
        <ele>784</ele>
      </trkpt>
      <trkpt lat="44.36412" lon="3.59095">
        <ele>788</ele>
      </trkpt>
      <trkpt lat="44.36473" lon="3.59046">
        <ele>799</ele>
      </trkpt>
      <trkpt lat="44.36543" lon="3.59044">
        <ele>822</ele>
      </trkpt>
      <trkpt lat="44.36505" lon="3.59169">
        <ele>830</ele>
      </trkpt>
      <trkpt lat="44.36511" lon="3.59232">
        <ele>830</ele>
      </trkpt>
      <trkpt lat="44.36625" lon="3.59316">
        <ele>827</ele>
      </trkpt>
      <trkpt lat="44.36726" lon="3.59528">
        <ele>804</ele>
      </trkpt>
      <trkpt lat="44.36817" lon="3.59587">
        <ele>800</ele>
      </trkpt>
      <trkpt lat="44.36859" lon="3.59647">
        <ele>781</ele>
      </trkpt>
      <trkpt lat="44.36951" lon="3.5968">
        <ele>763</ele>
      </trkpt>
      <trkpt lat="44.37109" lon="3.59656">
        <ele>765</ele>
      </trkpt>
      <trkpt lat="44.3714" lon="3.59713">
        <ele>770</ele>
      </trkpt>
      <trkpt lat="44.37179" lon="3.59776">
        <ele>774</ele>
      </trkpt>
      <trkpt lat="44.37297" lon="3.59917">
        <ele>780</ele>
      </trkpt>
      <trkpt lat="44.37409" lon="3.59963">
        <ele>786</ele>
      </trkpt>
      <trkpt lat="44.37493" lon="3.6004">
        <ele>795</ele>
      </trkpt>
      <trkpt lat="44.3768" lon="3.6007">
        <ele>795</ele>
      </trkpt>
      <trkpt lat="44.37759" lon="3.60024">
        <ele>791</ele>
      </trkpt>
      <trkpt lat="44.3782" lon="3.60029">
        <ele>792</ele>
      </trkpt>
      <trkpt lat="44.37874" lon="3.60021">
        <ele>792</ele>
      </trkpt>
      <trkpt lat="44.37994" lon="3.60114">
        <ele>810</ele>
      </trkpt>
      <trkpt lat="44.38223" lon="3.60104">
        <ele>845</ele>
      </trkpt>
      <trkpt lat="44.38401" lon="3.60064">
        <ele>857</ele>
      </trkpt>
      <trkpt lat="44.38508" lon="3.60029">
        <ele>883</ele>
      </trkpt>
      <trkpt lat="44.38569" lon="3.59983">
        <ele>885</ele>
      </trkpt>
      <trkpt lat="44.38674" lon="3.60014">
        <ele>910</ele>
      </trkpt>
      <trkpt lat="44.38726" lon="3.59993">
        <ele>907</ele>
      </trkpt>
      <trkpt lat="44.38937" lon="3.60032">
        <ele>933</ele>
      </trkpt>
      <trkpt lat="44.3902" lon="3.60072">
        <ele>942</ele>
      </trkpt>
      <trkpt lat="44.39091" lon="3.60142">
        <ele>957</ele>
      </trkpt>
      <trkpt lat="44.39033" lon="3.60131">
        <ele>956</ele>
      </trkpt>
      <trkpt lat="44.38925" lon="3.60153">
        <ele>976</ele>
      </trkpt>
      <trkpt lat="44.38828" lon="3.60201">
        <ele>1000</ele>
      </trkpt>
      <trkpt lat="44.38652" lon="3.60291">
        <ele>1016</ele>
      </trkpt>
      <trkpt lat="44.38577" lon="3.60361">
        <ele>1020</ele>
      </trkpt>
      <trkpt lat="44.38498" lon="3.60403">
        <ele>1015</ele>
      </trkpt>
      <trkpt lat="44.38435" lon="3.60411">
        <ele>1007</ele>
      </trkpt>
      <trkpt lat="44.384" lon="3.60454">
        <ele>999</ele>
      </trkpt>
      <trkpt lat="44.38482" lon="3.60434">
        <ele>1012</ele>
      </trkpt>
      <trkpt lat="44.38577" lon="3.60502">
        <ele>1021</ele>
      </trkpt>
      <trkpt lat="44.38643" lon="3.60507">
        <ele>1039</ele>
      </trkpt>
      <trkpt lat="44.38786" lon="3.60579">
        <ele>1057</ele>
      </trkpt>
      <trkpt lat="44.38949" lon="3.60614">
        <ele>1072</ele>
      </trkpt>
      <trkpt lat="44.39064" lon="3.60657">
        <ele>1086</ele>
      </trkpt>
      <trkpt lat="44.39153" lon="3.60669">
        <ele>1088</ele>
      </trkpt>
      <trkpt lat="44.3923" lon="3.60707">
        <ele>1093</ele>
      </trkpt>
      <trkpt lat="44.39373" lon="3.60813">
        <ele>1111</ele>
      </trkpt>
      <trkpt lat="44.39558" lon="3.60808">
        <ele>1131</ele>
      </trkpt>
      <trkpt lat="44.39782" lon="3.6086">
        <ele>1149</ele>
      </trkpt>
      <trkpt lat="44.3993" lon="3.60832">
        <ele>1161</ele>
      </trkpt>
      <trkpt lat="44.40185" lon="3.60951">
        <ele>1178</ele>
      </trkpt>
      <trkpt lat="44.40313" lon="3.61154">
        <ele>1186</ele>
      </trkpt>
      <trkpt lat="44.40415" lon="3.61345">
        <ele>1192</ele>
      </trkpt>
      <trkpt lat="44.4049" lon="3.61447">
        <ele>1197</ele>
      </trkpt>
      <trkpt lat="44.40496" lon="3.61488">
        <ele>1198</ele>
      </trkpt>
      <trkpt lat="44.40689" lon="3.61574">
        <ele>1193</ele>
      </trkpt>
      <trkpt lat="44.40835" lon="3.61709">
        <ele>1190</ele>
      </trkpt>
      <trkpt lat="44.40876" lon="3.6171">
        <ele>1189</ele>
      </trkpt>
      <trkpt lat="44.40985" lon="3.61791">
        <ele>1189</ele>
      </trkpt>
      <trkpt lat="44.4107" lon="3.61827">
        <ele>1187</ele>
      </trkpt>
      <trkpt lat="44.41226" lon="3.61962">
        <ele>1179</ele>
      </trkpt>
      <trkpt lat="44.41318" lon="3.6198">
        <ele>1182</ele>
      </trkpt>
      <trkpt lat="44.41434" lon="3.62036">
        <ele>1189</ele>
      </trkpt>
      <trkpt lat="44.41662" lon="3.62142">
        <ele>1205</ele>
      </trkpt>
      <trkpt lat="44.41733" lon="3.62256">
        <ele>1212</ele>
      </trkpt>
      <trkpt lat="44.41831" lon="3.62362">
        <ele>1221</ele>
      </trkpt>
      <trkpt lat="44.41857" lon="3.624">
        <ele>1222</ele>
      </trkpt>
      <trkpt lat="44.42023" lon="3.62435">
        <ele>1227</ele>
      </trkpt>
      <trkpt lat="44.42154" lon="3.62576">
        <ele>1231</ele>
      </trkpt>
      <trkpt lat="44.4242" lon="3.62708">
        <ele>1233</ele>
      </trkpt>
      <trkpt lat="44.42554" lon="3.62793">
        <ele>1242</ele>
      </trkpt>
      <trkpt lat="44.42646" lon="3.62807">
        <ele>1244</ele>
      </trkpt>
      <trkpt lat="44.42919" lon="3.62898">
        <ele>1267</ele>
      </trkpt>
      <trkpt lat="44.4307" lon="3.62892">
        <ele>1278</ele>
      </trkpt>
      <trkpt lat="44.43126" lon="3.62916">
        <ele>1279</ele>
      </trkpt>
      <trkpt lat="44.43244" lon="3.63047">
        <ele>1289</ele>
      </trkpt>
      <trkpt lat="44.43301" lon="3.63149">
        <ele>1292</ele>
      </trkpt>
      <trkpt lat="44.43298" lon="3.6323">
        <ele>1305</ele>
      </trkpt>
      <trkpt lat="44.43366" lon="3.63348">
        <ele>1314</ele>
      </trkpt>
      <trkpt lat="44.4343" lon="3.63425">
        <ele>1318</ele>
      </trkpt>
      <trkpt lat="44.43485" lon="3.63558">
        <ele>1328</ele>
      </trkpt>
      <trkpt lat="44.43488" lon="3.63639">
        <ele>1333</ele>
      </trkpt>
      <trkpt lat="44.43488" lon="3.63677">
        <ele>1336</ele>
        <time>2009-07-10T09:13:40Z</time>
      </trkpt>
      <trkpt lat="44.43458" lon="3.63736">
        <ele>1344</ele>
        <time>2009-07-10T09:13:54Z</time>
      </trkpt>
      <trkpt lat="44.43424" lon="3.63795">
        <ele>1351</ele>
        <time>2009-07-10T09:14:10Z</time>
      </trkpt>
      <trkpt lat="44.43405" lon="3.63873">
        <ele>1357</ele>
        <time>2009-07-10T09:14:25Z</time>
      </trkpt>
      <trkpt lat="44.43365" lon="3.63957">
        <ele>1365</ele>
        <time>2009-07-10T09:14:38Z</time>
      </trkpt>
      <trkpt lat="44.43385" lon="3.63995">
        <ele>1372</ele>
        <time>2009-07-10T09:14:52Z</time>
      </trkpt>
      <trkpt lat="44.43409" lon="3.64042">
        <ele>1381</ele>
        <time>2009-07-10T09:15:06Z</time>
      </trkpt>
      <trkpt lat="44.4344" lon="3.64093">
        <ele>1392</ele>
        <time>2009-07-10T09:15:18Z</time>
      </trkpt>
      <trkpt lat="44.43566" lon="3.64325">
        <ele>1424</ele>
        <time>2009-07-10T09:18:44Z</time>
      </trkpt>
      <trkpt lat="44.43583" lon="3.6436">
        <ele>1426</ele>
        <time>2009-07-10T09:18:49Z</time>
      </trkpt>
      <trkpt lat="44.4359" lon="3.64386">
        <ele>1428</ele>
        <time>2009-07-10T09:19:06Z</time>
      </trkpt>
      <trkpt lat="44.43591" lon="3.64433">
        <ele>1430</ele>
        <time>2009-07-10T09:19:20Z</time>
      </trkpt>
      <trkpt lat="44.43582" lon="3.64464">
        <ele>1432</ele>
        <time>2009-07-10T09:19:37Z</time>
      </trkpt>
      <trkpt lat="44.43571" lon="3.64482">
        <ele>1433</ele>
        <time>2009-07-10T09:19:50Z</time>
      </trkpt>
      <trkpt lat="44.43559" lon="3.64517">
        <ele>1435</ele>
        <time>2009-07-10T09:19:57Z</time>
      </trkpt>
      <trkpt lat="44.43546" lon="3.64531">
        <ele>1446</ele>
        <time>2009-07-10T09:20:16Z</time>
      </trkpt>
      <trkpt lat="44.43535" lon="3.64564">
        <ele>1447</ele>
        <time>2009-07-10T09:20:33Z</time>
      </trkpt>
      <trkpt lat="44.43536" lon="3.64565">
        <ele>1447</ele>
        <time>2009-07-10T09:21:00Z</time>
      </trkpt>
      <trkpt lat="44.43536" lon="3.64564">
        <ele>1447</ele>
        <time>2009-07-10T09:22:04Z</time>
      </trkpt>
      <trkpt lat="44.43536" lon="3.64563">
        <ele>1446</ele>
        <time>2009-07-10T09:22:31Z</time>
      </trkpt>
      <trkpt lat="44.43533" lon="3.64562">
        <ele>1447</ele>
        <time>2009-07-10T09:23:14Z</time>
      </trkpt>
      <trkpt lat="44.43531" lon="3.64566">
        <ele>1448</ele>
        <time>2009-07-10T09:24:22Z</time>
      </trkpt>
      <trkpt lat="44.43527" lon="3.64583">
        <ele>1450</ele>
        <time>2009-07-10T09:24:36Z</time>
      </trkpt>
      <trkpt lat="44.43517" lon="3.64627">
        <ele>1452</ele>
        <time>2009-07-10T09:24:51Z</time>
      </trkpt>
      <trkpt lat="44.43505" lon="3.64679">
        <ele>1454</ele>
        <time>2009-07-10T09:25:09Z</time>
      </trkpt>
      <trkpt lat="44.43493" lon="3.64729">
        <ele>1454</ele>
        <time>2009-07-10T09:25:27Z</time>
      </trkpt>
      <trkpt lat="44.43484" lon="3.64773">
        <ele>1457</ele>
        <time>2009-07-10T09:25:42Z</time>
      </trkpt>
      <trkpt lat="44.43476" lon="3.64824">
        <ele>1459</ele>
        <time>2009-07-10T09:25:59Z</time>
      </trkpt>
      <trkpt lat="44.4347" lon="3.64861">
        <ele>1463</ele>
        <time>2009-07-10T09:26:12Z</time>
      </trkpt>
      <trkpt lat="44.43466" lon="3.64888">
        <ele>1465</ele>
        <time>2009-07-10T09:26:23Z</time>
      </trkpt>
      <trkpt lat="44.43463" lon="3.64912">
        <ele>1468</ele>
        <time>2009-07-10T09:26:33Z</time>
      </trkpt>
      <trkpt lat="44.43456" lon="3.64961">
        <ele>1470</ele>
        <time>2009-07-10T09:26:53Z</time>
      </trkpt>
      <trkpt lat="44.43451" lon="3.64999">
        <ele>1473</ele>
        <time>2009-07-10T09:27:08Z</time>
      </trkpt>
      <trkpt lat="44.43444" lon="3.65042">
        <ele>1475</ele>
        <time>2009-07-10T09:27:24Z</time>
      </trkpt>
      <trkpt lat="44.43443" lon="3.65086">
        <ele>1477</ele>
        <time>2009-07-10T09:27:40Z</time>
      </trkpt>
      <trkpt lat="44.43442" lon="3.65112">
        <ele>1480</ele>
        <time>2009-07-10T09:27:50Z</time>
      </trkpt>
      <trkpt lat="44.43442" lon="3.65146">
        <ele>1483</ele>
        <time>2009-07-10T09:28:04Z</time>
      </trkpt>
      <trkpt lat="44.43441" lon="3.65181">
        <ele>1485</ele>
        <time>2009-07-10T09:28:19Z</time>
      </trkpt>
      <trkpt lat="44.4344" lon="3.65228">
        <ele>1488</ele>
        <time>2009-07-10T09:28:37Z</time>
      </trkpt>
      <trkpt lat="44.4344" lon="3.65236">
        <ele>1489</ele>
        <time>2009-07-10T09:28:40Z</time>
      </trkpt>
      <trkpt lat="44.4344" lon="3.65241">
        <ele>1490</ele>
        <time>2009-07-10T09:28:42Z</time>
      </trkpt>
      <trkpt lat="44.4344" lon="3.65283">
        <ele>1491</ele>
        <time>2009-07-10T09:28:59Z</time>
      </trkpt>
      <trkpt lat="44.4344" lon="3.65314">
        <ele>1494</ele>
        <time>2009-07-10T09:29:12Z</time>
      </trkpt>
      <trkpt lat="44.43438" lon="3.65349">
        <ele>1496</ele>
        <time>2009-07-10T09:29:27Z</time>
      </trkpt>
      <trkpt lat="44.43441" lon="3.65377">
        <ele>1500</ele>
        <time>2009-07-10T09:29:39Z</time>
      </trkpt>
      <trkpt lat="44.43441" lon="3.65379">
        <ele>1500</ele>
        <time>2009-07-10T09:29:40Z</time>
      </trkpt>
      <trkpt lat="44.43441" lon="3.65403">
        <ele>1503</ele>
        <time>2009-07-10T09:29:50Z</time>
      </trkpt>
      <trkpt lat="44.43441" lon="3.65439">
        <ele>1506</ele>
        <time>2009-07-10T09:30:05Z</time>
      </trkpt>
      <trkpt lat="44.43443" lon="3.65475">
        <ele>1508</ele>
        <time>2009-07-10T09:30:20Z</time>
      </trkpt>
      <trkpt lat="44.43451" lon="3.65504">
        <ele>1509</ele>
        <time>2009-07-10T09:30:36Z</time>
      </trkpt>
      <trkpt lat="44.43449" lon="3.65506">
        <ele>1508</ele>
        <time>2009-07-10T09:30:58Z</time>
      </trkpt>
      <trkpt lat="44.43449" lon="3.65507">
        <ele>1513</ele>
        <time>2009-07-10T09:30:59Z</time>
      </trkpt>
      <trkpt lat="44.43449" lon="3.65507">
        <ele>1510</ele>
        <time>2009-07-10T09:31:00Z</time>
      </trkpt>
      <trkpt lat="44.43449" lon="3.65507">
        <ele>1506</ele>
        <time>2009-07-10T09:31:02Z</time>
      </trkpt>
      <trkpt lat="44.43449" lon="3.65507">
        <ele>1512</ele>
        <time>2009-07-10T09:31:03Z</time>
      </trkpt>
      <trkpt lat="44.43449" lon="3.65507">
        <ele>1507</ele>
        <time>2009-07-10T09:31:07Z</time>
      </trkpt>
      <trkpt lat="44.43449" lon="3.65507">
        <ele>1513</ele>
        <time>2009-07-10T09:31:09Z</time>
      </trkpt>
      <trkpt lat="44.43449" lon="3.65507">
        <ele>1507</ele>
        <time>2009-07-10T09:31:10Z</time>
      </trkpt>
      <trkpt lat="44.43449" lon="3.65507">
        <ele>1511</ele>
        <time>2009-07-10T09:31:11Z</time>
      </trkpt>
      <trkpt lat="44.43451" lon="3.65514">
        <ele>1509</ele>
        <time>2009-07-10T09:31:29Z</time>
      </trkpt>
      <trkpt lat="44.43457" lon="3.6555">
        <ele>1511</ele>
        <time>2009-07-10T09:31:45Z</time>
      </trkpt>
      <trkpt lat="44.43462" lon="3.65572">
        <ele>1514</ele>
        <time>2009-07-10T09:31:55Z</time>
      </trkpt>
      <trkpt lat="44.43471" lon="3.65609">
        <ele>1514</ele>
        <time>2009-07-10T09:32:10Z</time>
      </trkpt>
      <trkpt lat="44.43481" lon="3.65654">
        <ele>1515</ele>
        <time>2009-07-10T09:32:29Z</time>
      </trkpt>
      <trkpt lat="44.4349" lon="3.65686">
        <ele>1515</ele>
        <time>2009-07-10T09:32:43Z</time>
      </trkpt>
      <trkpt lat="44.435" lon="3.6573">
        <ele>1516</ele>
        <time>2009-07-10T09:33:01Z</time>
      </trkpt>
      <trkpt lat="44.43508" lon="3.6576">
        <ele>1518</ele>
        <time>2009-07-10T09:33:15Z</time>
      </trkpt>
      <trkpt lat="44.43515" lon="3.65789">
        <ele>1520</ele>
        <time>2009-07-10T09:33:28Z</time>
      </trkpt>
      <trkpt lat="44.43517" lon="3.658">
        <ele>1520</ele>
        <time>2009-07-10T09:33:33Z</time>
      </trkpt>
      <trkpt lat="44.4352" lon="3.65809">
        <ele>1521</ele>
        <time>2009-07-10T09:33:37Z</time>
      </trkpt>
      <trkpt lat="44.43521" lon="3.65819">
        <ele>1521</ele>
        <time>2009-07-10T09:33:49Z</time>
      </trkpt>
      <trkpt lat="44.43526" lon="3.65833">
        <ele>1523</ele>
        <time>2009-07-10T09:33:56Z</time>
      </trkpt>
      <trkpt lat="44.43533" lon="3.65863">
        <ele>1525</ele>
        <time>2009-07-10T09:34:12Z</time>
      </trkpt>
      <trkpt lat="44.43536" lon="3.65871">
        <ele>1526</ele>
        <time>2009-07-10T09:34:24Z</time>
      </trkpt>
      <trkpt lat="44.43536" lon="3.65872">
        <ele>1526</ele>
        <time>2009-07-10T09:34:28Z</time>
      </trkpt>
      <trkpt lat="44.43539" lon="3.65877">
        <ele>1526</ele>
        <time>2009-07-10T09:34:32Z</time>
      </trkpt>
      <trkpt lat="44.43543" lon="3.65885">
        <ele>1528</ele>
        <time>2009-07-10T09:34:37Z</time>
      </trkpt>
      <trkpt lat="44.43546" lon="3.65893">
        <ele>1531</ele>
        <time>2009-07-10T09:34:41Z</time>
      </trkpt>
      <trkpt lat="44.43549" lon="3.65897">
        <ele>1532</ele>
        <time>2009-07-10T09:34:43Z</time>
      </trkpt>
      <trkpt lat="44.43555" lon="3.6591">
        <ele>1533</ele>
        <time>2009-07-10T09:34:54Z</time>
      </trkpt>
      <trkpt lat="44.43561" lon="3.65921">
        <ele>1532</ele>
        <time>2009-07-10T09:35:07Z</time>
      </trkpt>
      <trkpt lat="44.43574" lon="3.65938">
        <ele>1534</ele>
        <time>2009-07-10T09:35:20Z</time>
      </trkpt>
      <trkpt lat="44.43582" lon="3.65957">
        <ele>1536</ele>
        <time>2009-07-10T09:35:28Z</time>
      </trkpt>
      <trkpt lat="44.43588" lon="3.65965">
        <ele>1537</ele>
        <time>2009-07-10T09:35:39Z</time>
      </trkpt>
      <trkpt lat="44.43591" lon="3.65972">
        <ele>1537</ele>
        <time>2009-07-10T09:35:45Z</time>
      </trkpt>
      <trkpt lat="44.436" lon="3.65979">
        <ele>1537</ele>
        <time>2009-07-10T09:35:59Z</time>
      </trkpt>
      <trkpt lat="44.43623" lon="3.66003">
        <ele>1539</ele>
        <time>2009-07-10T09:36:13Z</time>
      </trkpt>
      <trkpt lat="44.43642" lon="3.66024">
        <ele>1538</ele>
        <time>2009-07-10T09:36:24Z</time>
      </trkpt>
      <trkpt lat="44.43654" lon="3.66037">
        <ele>1538</ele>
        <time>2009-07-10T09:36:31Z</time>
      </trkpt>
      <trkpt lat="44.43675" lon="3.66065">
        <ele>1539</ele>
        <time>2009-07-10T09:36:44Z</time>
      </trkpt>
      <trkpt lat="44.43717" lon="3.66107">
        <ele>1537</ele>
        <time>2009-07-10T09:37:03Z</time>
      </trkpt>
      <trkpt lat="44.43744" lon="3.6614">
        <ele>1537</ele>
        <time>2009-07-10T09:37:18Z</time>
      </trkpt>
      <trkpt lat="44.43747" lon="3.66147">
        <ele>1536</ele>
        <time>2009-07-10T09:37:30Z</time>
      </trkpt>
      <trkpt lat="44.43747" lon="3.66147">
        <ele>1538</ele>
        <time>2009-07-10T09:37:32Z</time>
      </trkpt>
      <trkpt lat="44.43747" lon="3.66148">
        <ele>1534</ele>
        <time>2009-07-10T09:37:44Z</time>
      </trkpt>
      <trkpt lat="44.43747" lon="3.66148">
        <ele>1538</ele>
        <time>2009-07-10T09:37:45Z</time>
      </trkpt>
      <trkpt lat="44.43747" lon="3.66148">
        <ele>1535</ele>
        <time>2009-07-10T09:37:46Z</time>
      </trkpt>
      <trkpt lat="44.43747" lon="3.66148">
        <ele>1538</ele>
        <time>2009-07-10T09:37:47Z</time>
      </trkpt>
      <trkpt lat="44.43747" lon="3.66148">
        <ele>1537</ele>
        <time>2009-07-10T09:37:56Z</time>
      </trkpt>
      <trkpt lat="44.43747" lon="3.66148">
        <ele>1536</ele>
        <time>2009-07-10T09:37:58Z</time>
      </trkpt>
      <trkpt lat="44.43746" lon="3.66149">
        <ele>1537</ele>
        <time>2009-07-10T09:38:33Z</time>
      </trkpt>
      <trkpt lat="44.43747" lon="3.6615">
        <ele>1536</ele>
        <time>2009-07-10T09:38:53Z</time>
      </trkpt>
      <trkpt lat="44.43747" lon="3.66163">
        <ele>1535</ele>
        <time>2009-07-10T09:40:58Z</time>
      </trkpt>
      <trkpt lat="44.43752" lon="3.66179">
        <ele>1537</ele>
        <time>2009-07-10T09:41:03Z</time>
      </trkpt>
      <trkpt lat="44.43754" lon="3.66186">
        <ele>1535</ele>
        <time>2009-07-10T09:41:05Z</time>
      </trkpt>
      <trkpt lat="44.43761" lon="3.6621">
        <ele>1535</ele>
        <time>2009-07-10T09:41:11Z</time>
      </trkpt>
      <trkpt lat="44.43769" lon="3.66263">
        <ele>1537</ele>
        <time>2009-07-10T09:41:22Z</time>
      </trkpt>
      <trkpt lat="44.43766" lon="3.66355">
        <ele>1539</ele>
        <time>2009-07-10T09:41:41Z</time>
      </trkpt>
      <trkpt lat="44.43755" lon="3.66451">
        <ele>1542</ele>
        <time>2009-07-10T09:42:02Z</time>
      </trkpt>
      <trkpt lat="44.43739" lon="3.66533">
        <ele>1542</ele>
        <time>2009-07-10T09:42:20Z</time>
      </trkpt>
      <trkpt lat="44.437" lon="3.66625">
        <ele>1544</ele>
        <time>2009-07-10T09:42:42Z</time>
      </trkpt>
      <trkpt lat="44.43647" lon="3.66689">
        <ele>1546</ele>
        <time>2009-07-10T09:43:01Z</time>
      </trkpt>
      <trkpt lat="44.43574" lon="3.66747">
        <ele>1548</ele>
        <time>2009-07-10T09:43:24Z</time>
      </trkpt>
      <trkpt lat="44.43506" lon="3.66782">
        <ele>1551</ele>
        <time>2009-07-10T09:43:43Z</time>
      </trkpt>
      <trkpt lat="44.43432" lon="3.66822">
        <ele>1555</ele>
        <time>2009-07-10T09:44:04Z</time>
      </trkpt>
      <trkpt lat="44.43407" lon="3.66882">
        <ele>1556</ele>
        <time>2009-07-10T09:44:18Z</time>
      </trkpt>
      <trkpt lat="44.43412" lon="3.66992">
        <ele>1557</ele>
        <time>2009-07-10T09:44:39Z</time>
      </trkpt>
      <trkpt lat="44.43425" lon="3.671">
        <ele>1559</ele>
        <time>2009-07-10T09:45:01Z</time>
      </trkpt>
      <trkpt lat="44.43441" lon="3.6719">
        <ele>1561</ele>
        <time>2009-07-10T09:45:20Z</time>
      </trkpt>
      <trkpt lat="44.43481" lon="3.67247">
        <ele>1561</ele>
        <time>2009-07-10T09:45:36Z</time>
      </trkpt>
      <trkpt lat="44.43546" lon="3.67316">
        <ele>1563</ele>
        <time>2009-07-10T09:45:58Z</time>
      </trkpt>
      <trkpt lat="44.43593" lon="3.67368">
        <ele>1563</ele>
        <time>2009-07-10T09:46:13Z</time>
      </trkpt>
      <trkpt lat="44.43617" lon="3.6746">
        <ele>1564</ele>
        <time>2009-07-10T09:46:30Z</time>
      </trkpt>
      <trkpt lat="44.43618" lon="3.67472">
        <ele>1564</ele>
        <time>2009-07-10T09:46:32Z</time>
      </trkpt>
      <trkpt lat="44.43618" lon="3.67496">
        <ele>1564</ele>
        <time>2009-07-10T09:46:36Z</time>
      </trkpt>
      <trkpt lat="44.43619" lon="3.67607">
        <ele>1563</ele>
        <time>2009-07-10T09:46:54Z</time>
      </trkpt>
      <trkpt lat="44.4362" lon="3.67702">
        <ele>1563</ele>
        <time>2009-07-10T09:47:10Z</time>
      </trkpt>
      <trkpt lat="44.43616" lon="3.67809">
        <ele>1563</ele>
        <time>2009-07-10T09:47:29Z</time>
      </trkpt>
      <trkpt lat="44.43582" lon="3.67926">
        <ele>1561</ele>
        <time>2009-07-10T09:47:48Z</time>
      </trkpt>
      <trkpt lat="44.43551" lon="3.68">
        <ele>1558</ele>
        <time>2009-07-10T09:47:58Z</time>
      </trkpt>
      <trkpt lat="44.43524" lon="3.6804">
        <ele>1557</ele>
        <time>2009-07-10T09:48:04Z</time>
      </trkpt>
      <trkpt lat="44.43508" lon="3.68112">
        <ele>1557</ele>
        <time>2009-07-10T09:48:13Z</time>
      </trkpt>
      <trkpt lat="44.4351" lon="3.68119">
        <ele>1556</ele>
        <time>2009-07-10T09:48:14Z</time>
      </trkpt>
      <trkpt lat="44.43536" lon="3.68165">
        <ele>1556</ele>
        <time>2009-07-10T09:48:24Z</time>
      </trkpt>
      <trkpt lat="44.43548" lon="3.68182">
        <ele>1555</ele>
        <time>2009-07-10T09:48:28Z</time>
      </trkpt>
      <trkpt lat="44.43595" lon="3.68245">
        <ele>1556</ele>
        <time>2009-07-10T09:48:44Z</time>
      </trkpt>
      <trkpt lat="44.436" lon="3.68254">
        <ele>1555</ele>
        <time>2009-07-10T09:48:46Z</time>
      </trkpt>
      <trkpt lat="44.43605" lon="3.68265">
        <ele>1555</ele>
        <time>2009-07-10T09:48:48Z</time>
      </trkpt>
      <trkpt lat="44.43623" lon="3.6834">
        <ele>1555</ele>
        <time>2009-07-10T09:49:01Z</time>
      </trkpt>
      <trkpt lat="44.43631" lon="3.68368">
        <ele>1554</ele>
        <time>2009-07-10T09:49:06Z</time>
      </trkpt>
      <trkpt lat="44.4364" lon="3.6843">
        <ele>1553</ele>
        <time>2009-07-10T09:49:16Z</time>
      </trkpt>
      <trkpt lat="44.43639" lon="3.68455">
        <ele>1552</ele>
        <time>2009-07-10T09:49:20Z</time>
      </trkpt>
      <trkpt lat="44.43626" lon="3.6858">
        <ele>1550</ele>
        <time>2009-07-10T09:49:38Z</time>
      </trkpt>
      <trkpt lat="44.43614" lon="3.68711">
        <ele>1549</ele>
        <time>2009-07-10T09:49:55Z</time>
      </trkpt>
      <trkpt lat="44.43622" lon="3.68789">
        <ele>1547</ele>
        <time>2009-07-10T09:50:06Z</time>
      </trkpt>
      <trkpt lat="44.43626" lon="3.68824">
        <ele>1538</ele>
      </trkpt>
      <trkpt lat="44.4374" lon="3.69028">
        <ele>1536</ele>
      </trkpt>
      <trkpt lat="44.43773" lon="3.69091">
        <ele>1534</ele>
      </trkpt>
      <trkpt lat="44.43799" lon="3.69223">
        <ele>1535</ele>
      </trkpt>
      <trkpt lat="44.4382" lon="3.69312">
        <ele>1535</ele>
      </trkpt>
      <trkpt lat="44.43877" lon="3.69451">
        <ele>1530</ele>
      </trkpt>
      <trkpt lat="44.43877" lon="3.69589">
        <ele>1525</ele>
      </trkpt>
      <trkpt lat="44.43847" lon="3.69677">
        <ele>1524</ele>
      </trkpt>
      <trkpt lat="44.43801" lon="3.69955">
        <ele>1526</ele>
      </trkpt>
      <trkpt lat="44.43816" lon="3.70162">
        <ele>1528</ele>
      </trkpt>
      <trkpt lat="44.4389" lon="3.70396">
        <ele>1529</ele>
      </trkpt>
      <trkpt lat="44.43899" lon="3.70541">
        <ele>1525</ele>
      </trkpt>
      <trkpt lat="44.43855" lon="3.70625">
        <ele>1525</ele>
      </trkpt>
      <trkpt lat="44.43778" lon="3.7072">
        <ele>1524</ele>
      </trkpt>
      <trkpt lat="44.43703" lon="3.70768">
        <ele>1530</ele>
      </trkpt>
      <trkpt lat="44.43673" lon="3.70862">
        <ele>1532</ele>
      </trkpt>
      <trkpt lat="44.43593" lon="3.71145">
        <ele>1537</ele>
      </trkpt>
      <trkpt lat="44.4362" lon="3.7125">
        <ele>1541</ele>
      </trkpt>
      <trkpt lat="44.43685" lon="3.71317">
        <ele>1547</ele>
      </trkpt>
      <trkpt lat="44.43775" lon="3.71304">
        <ele>1547</ele>
      </trkpt>
      <trkpt lat="44.43903" lon="3.71288">
        <ele>1544</ele>
      </trkpt>
      <trkpt lat="44.43959" lon="3.71321">
        <ele>1541</ele>
      </trkpt>
      <trkpt lat="44.4399" lon="3.71406">
        <ele>1539</ele>
      </trkpt>
      <trkpt lat="44.43992" lon="3.71547">
        <ele>1538</ele>
      </trkpt>
      <trkpt lat="44.43971" lon="3.71622">
        <ele>1537</ele>
      </trkpt>
      <trkpt lat="44.43891" lon="3.71736">
        <ele>1537</ele>
      </trkpt>
      <trkpt lat="44.43808" lon="3.71894">
        <ele>1535</ele>
      </trkpt>
      <trkpt lat="44.43686" lon="3.72117">
        <ele>1537</ele>
      </trkpt>
      <trkpt lat="44.43615" lon="3.7226">
        <ele>1543</ele>
      </trkpt>
      <trkpt lat="44.43603" lon="3.72319">
        <ele>1547</ele>
      </trkpt>
      <trkpt lat="44.43631" lon="3.72411">
        <ele>1549</ele>
      </trkpt>
      <trkpt lat="44.43741" lon="3.72533">
        <ele>1549</ele>
      </trkpt>
      <trkpt lat="44.43668" lon="3.72666">
        <ele>1545</ele>
      </trkpt>
      <trkpt lat="44.43653" lon="3.72776">
        <ele>1544</ele>
      </trkpt>
      <trkpt lat="44.43478" lon="3.72756">
        <ele>1579</ele>
      </trkpt>
      <trkpt lat="44.43391" lon="3.72719">
        <ele>1597</ele>
      </trkpt>
      <trkpt lat="44.43186" lon="3.7272">
        <ele>1648</ele>
      </trkpt>
      <trkpt lat="44.43118" lon="3.72728">
        <ele>1665</ele>
      </trkpt>
      <trkpt lat="44.43045" lon="3.72701">
        <ele>1679</ele>
      </trkpt>
      <trkpt lat="44.42984" lon="3.72715">
        <ele>1682</ele>
      </trkpt>
      <trkpt lat="44.42903" lon="3.72867">
        <ele>1682</ele>
        <time>2009-07-10T10:31:21Z</time>
      </trkpt>
      <trkpt lat="44.4286" lon="3.72929">
        <ele>1682</ele>
        <time>2009-07-10T10:31:31Z</time>
      </trkpt>
      <trkpt lat="44.42796" lon="3.73147">
        <ele>1682</ele>
        <time>2009-07-10T10:33:01Z</time>
      </trkpt>
      <trkpt lat="44.42755" lon="3.73215">
        <ele>1683</ele>
        <time>2009-07-10T10:33:13Z</time>
      </trkpt>
      <trkpt lat="44.42677" lon="3.73527">
        <ele>1689</ele>
        <time>2009-07-10T10:33:25Z</time>
      </trkpt>
      <trkpt lat="44.4263" lon="3.73789">
        <ele>1696</ele>
        <time>2009-07-10T10:33:39Z</time>
      </trkpt>
      <trkpt lat="44.42606" lon="3.73908">
        <ele>1693</ele>
        <time>2009-07-10T10:33:48Z</time>
      </trkpt>
      <trkpt lat="44.42555" lon="3.74026">
        <ele>1688</ele>
        <time>2009-07-10T10:33:55Z</time>
      </trkpt>
      <trkpt lat="44.42537" lon="3.74097">
        <ele>1698</ele>
        <time>2009-07-10T10:33:57Z</time>
      </trkpt>
      <trkpt lat="44.42532" lon="3.74121">
        <ele>1694</ele>
        <time>2009-07-10T10:34:00Z</time>
      </trkpt>
      <trkpt lat="44.42528" lon="3.7414">
        <ele>1692</ele>
        <time>2009-07-10T10:34:02Z</time>
      </trkpt>
      <trkpt lat="44.42525" lon="3.7415">
        <ele>1691</ele>
        <time>2009-07-10T10:34:03Z</time>
      </trkpt>
      <trkpt lat="44.42518" lon="3.74183">
        <ele>1688</ele>
        <time>2009-07-10T10:34:06Z</time>
      </trkpt>
      <trkpt lat="44.42512" lon="3.74218">
        <ele>1683</ele>
        <time>2009-07-10T10:34:09Z</time>
      </trkpt>
      <trkpt lat="44.42507" lon="3.74255">
        <ele>1678</ele>
        <time>2009-07-10T10:34:12Z</time>
      </trkpt>
      <trkpt lat="44.42503" lon="3.74283">
        <ele>1674</ele>
        <time>2009-07-10T10:34:14Z</time>
      </trkpt>
      <trkpt lat="44.42501" lon="3.74314">
        <ele>1670</ele>
        <time>2009-07-10T10:34:16Z</time>
      </trkpt>
      <trkpt lat="44.42499" lon="3.74345">
        <ele>1669</ele>
        <time>2009-07-10T10:34:18Z</time>
      </trkpt>
      <trkpt lat="44.42495" lon="3.74382">
        <ele>1670</ele>
        <time>2009-07-10T10:34:21Z</time>
      </trkpt>
      <trkpt lat="44.42489" lon="3.74408">
        <ele>1668</ele>
        <time>2009-07-10T10:34:26Z</time>
      </trkpt>
      <trkpt lat="44.42489" lon="3.7441">
        <ele>1667</ele>
        <time>2009-07-10T10:34:28Z</time>
      </trkpt>
      <trkpt lat="44.4249" lon="3.74411">
        <ele>1667</ele>
        <time>2009-07-10T10:34:44Z</time>
      </trkpt>
      <trkpt lat="44.42493" lon="3.74423">
        <ele>1667</ele>
        <time>2009-07-10T10:35:20Z</time>
      </trkpt>
      <trkpt lat="44.42489" lon="3.74465">
        <ele>1667</ele>
        <time>2009-07-10T10:35:28Z</time>
      </trkpt>
      <trkpt lat="44.42476" lon="3.74511">
        <ele>1664</ele>
        <time>2009-07-10T10:35:35Z</time>
      </trkpt>
      <trkpt lat="44.42467" lon="3.74545">
        <ele>1662</ele>
        <time>2009-07-10T10:35:39Z</time>
      </trkpt>
      <trkpt lat="44.42439" lon="3.74662">
        <ele>1660</ele>
        <time>2009-07-10T10:35:53Z</time>
      </trkpt>
      <trkpt lat="44.42428" lon="3.74702">
        <ele>1659</ele>
        <time>2009-07-10T10:35:58Z</time>
      </trkpt>
      <trkpt lat="44.42414" lon="3.74803">
        <ele>1653</ele>
        <time>2009-07-10T10:36:09Z</time>
      </trkpt>
      <trkpt lat="44.42413" lon="3.74813">
        <ele>1653</ele>
        <time>2009-07-10T10:36:10Z</time>
      </trkpt>
      <trkpt lat="44.42412" lon="3.74835">
        <ele>1653</ele>
        <time>2009-07-10T10:36:12Z</time>
      </trkpt>
      <trkpt lat="44.42414" lon="3.74857">
        <ele>1651</ele>
        <time>2009-07-10T10:36:14Z</time>
      </trkpt>
      <trkpt lat="44.42421" lon="3.74899">
        <ele>1649</ele>
        <time>2009-07-10T10:36:18Z</time>
      </trkpt>
      <trkpt lat="44.4245" lon="3.74989">
        <ele>1646</ele>
        <time>2009-07-10T10:36:27Z</time>
      </trkpt>
      <trkpt lat="44.42474" lon="3.7505">
        <ele>1642</ele>
        <time>2009-07-10T10:36:33Z</time>
      </trkpt>
      <trkpt lat="44.42485" lon="3.75078">
        <ele>1642</ele>
        <time>2009-07-10T10:36:36Z</time>
      </trkpt>
      <trkpt lat="44.42498" lon="3.75131">
        <ele>1641</ele>
        <time>2009-07-10T10:36:42Z</time>
      </trkpt>
      <trkpt lat="44.42497" lon="3.75153">
        <ele>1644</ele>
        <time>2009-07-10T10:36:47Z</time>
      </trkpt>
      <trkpt lat="44.42496" lon="3.75152">
        <ele>1643</ele>
        <time>2009-07-10T10:37:05Z</time>
      </trkpt>
      <trkpt lat="44.42496" lon="3.7515">
        <ele>1642</ele>
        <time>2009-07-10T10:37:50Z</time>
      </trkpt>
      <trkpt lat="44.42492" lon="3.75152">
        <ele>1643</ele>
        <time>2009-07-10T10:39:30Z</time>
      </trkpt>
      <trkpt lat="44.42479" lon="3.75151">
        <ele>1642</ele>
        <time>2009-07-10T10:39:35Z</time>
      </trkpt>
      <trkpt lat="44.4246" lon="3.75153">
        <ele>1640</ele>
        <time>2009-07-10T10:39:41Z</time>
      </trkpt>
      <trkpt lat="44.4244" lon="3.75156">
        <ele>1637</ele>
        <time>2009-07-10T10:39:46Z</time>
      </trkpt>
      <trkpt lat="44.4242" lon="3.75152">
        <ele>1631</ele>
        <time>2009-07-10T10:39:50Z</time>
      </trkpt>
      <trkpt lat="44.42394" lon="3.75144">
        <ele>1627</ele>
        <time>2009-07-10T10:39:54Z</time>
      </trkpt>
      <trkpt lat="44.42371" lon="3.75142">
        <ele>1622</ele>
        <time>2009-07-10T10:39:58Z</time>
      </trkpt>
      <trkpt lat="44.42367" lon="3.75141">
        <ele>1622</ele>
        <time>2009-07-10T10:39:59Z</time>
      </trkpt>
      <trkpt lat="44.42345" lon="3.7514">
        <ele>1620</ele>
        <time>2009-07-10T10:40:05Z</time>
      </trkpt>
      <trkpt lat="44.42328" lon="3.75142">
        <ele>1617</ele>
        <time>2009-07-10T10:40:12Z</time>
      </trkpt>
      <trkpt lat="44.42325" lon="3.75141">
        <ele>1617</ele>
        <time>2009-07-10T10:40:13Z</time>
      </trkpt>
      <trkpt lat="44.42315" lon="3.75139">
        <ele>1614</ele>
        <time>2009-07-10T10:40:18Z</time>
      </trkpt>
      <trkpt lat="44.42306" lon="3.75134">
        <ele>1613</ele>
        <time>2009-07-10T10:40:26Z</time>
      </trkpt>
      <trkpt lat="44.423" lon="3.7513">
        <ele>1610</ele>
        <time>2009-07-10T10:40:31Z</time>
      </trkpt>
      <trkpt lat="44.42296" lon="3.75131">
        <ele>1610</ele>
        <time>2009-07-10T10:40:33Z</time>
      </trkpt>
      <trkpt lat="44.42284" lon="3.75127">
        <ele>1609</ele>
        <time>2009-07-10T10:40:38Z</time>
      </trkpt>
      <trkpt lat="44.42275" lon="3.75114">
        <ele>1605</ele>
        <time>2009-07-10T10:40:44Z</time>
      </trkpt>
      <trkpt lat="44.4226" lon="3.7511">
        <ele>1603</ele>
        <time>2009-07-10T10:40:50Z</time>
      </trkpt>
      <trkpt lat="44.42253" lon="3.75106">
        <ele>1601</ele>
        <time>2009-07-10T10:40:52Z</time>
      </trkpt>
      <trkpt lat="44.42223" lon="3.75099">
        <ele>1597</ele>
        <time>2009-07-10T10:40:59Z</time>
      </trkpt>
      <trkpt lat="44.42219" lon="3.75099">
        <ele>1597</ele>
        <time>2009-07-10T10:41:00Z</time>
      </trkpt>
      <trkpt lat="44.42201" lon="3.75093">
        <ele>1590</ele>
        <time>2009-07-10T10:41:06Z</time>
      </trkpt>
      <trkpt lat="44.42197" lon="3.75093">
        <ele>1590</ele>
        <time>2009-07-10T10:41:07Z</time>
      </trkpt>
      <trkpt lat="44.42176" lon="3.75088">
        <ele>1586</ele>
        <time>2009-07-10T10:41:13Z</time>
      </trkpt>
      <trkpt lat="44.42173" lon="3.75087">
        <ele>1586</ele>
        <time>2009-07-10T10:41:14Z</time>
      </trkpt>
      <trkpt lat="44.42159" lon="3.75088">
        <ele>1584</ele>
        <time>2009-07-10T10:41:19Z</time>
      </trkpt>
      <trkpt lat="44.42141" lon="3.75088">
        <ele>1581</ele>
        <time>2009-07-10T10:41:25Z</time>
      </trkpt>
      <trkpt lat="44.42139" lon="3.75087">
        <ele>1580</ele>
        <time>2009-07-10T10:41:26Z</time>
      </trkpt>
      <trkpt lat="44.42133" lon="3.75084">
        <ele>1578</ele>
        <time>2009-07-10T10:41:31Z</time>
      </trkpt>
      <trkpt lat="44.42129" lon="3.75084">
        <ele>1577</ele>
        <time>2009-07-10T10:41:42Z</time>
      </trkpt>
      <trkpt lat="44.42124" lon="3.75084">
        <ele>1575</ele>
        <time>2009-07-10T10:41:55Z</time>
      </trkpt>
      <trkpt lat="44.4212" lon="3.75078">
        <ele>1574</ele>
        <time>2009-07-10T10:42:06Z</time>
      </trkpt>
      <trkpt lat="44.4212" lon="3.75079">
        <ele>1574</ele>
        <time>2009-07-10T10:42:29Z</time>
      </trkpt>
      <trkpt lat="44.4212" lon="3.75077">
        <ele>1573</ele>
        <time>2009-07-10T10:42:37Z</time>
      </trkpt>
      <trkpt lat="44.42118" lon="3.75068">
        <ele>1572</ele>
        <time>2009-07-10T10:42:41Z</time>
      </trkpt>
      <trkpt lat="44.42116" lon="3.75059">
        <ele>1569</ele>
        <time>2009-07-10T10:42:44Z</time>
      </trkpt>
      <trkpt lat="44.42101" lon="3.75052">
        <ele>1566</ele>
        <time>2009-07-10T10:42:49Z</time>
      </trkpt>
      <trkpt lat="44.42081" lon="3.75056">
        <ele>1562</ele>
        <time>2009-07-10T10:42:55Z</time>
      </trkpt>
      <trkpt lat="44.42069" lon="3.7506">
        <ele>1560</ele>
        <time>2009-07-10T10:42:58Z</time>
      </trkpt>
      <trkpt lat="44.42062" lon="3.75061">
        <ele>1557</ele>
        <time>2009-07-10T10:43:00Z</time>
      </trkpt>
      <trkpt lat="44.42052" lon="3.75064">
        <ele>1556</ele>
        <time>2009-07-10T10:43:02Z</time>
      </trkpt>
      <trkpt lat="44.42044" lon="3.75065">
        <ele>1555</ele>
        <time>2009-07-10T10:43:04Z</time>
      </trkpt>
      <trkpt lat="44.42034" lon="3.75073">
        <ele>1555</ele>
        <time>2009-07-10T10:43:08Z</time>
      </trkpt>
      <trkpt lat="44.42028" lon="3.75061">
        <ele>1550</ele>
        <time>2009-07-10T10:43:13Z</time>
      </trkpt>
      <trkpt lat="44.4203" lon="3.75054">
        <ele>1548</ele>
        <time>2009-07-10T10:43:14Z</time>
      </trkpt>
      <trkpt lat="44.42036" lon="3.75042">
        <ele>1547</ele>
        <time>2009-07-10T10:43:16Z</time>
      </trkpt>
      <trkpt lat="44.42043" lon="3.75026">
        <ele>1545</ele>
        <time>2009-07-10T10:43:20Z</time>
      </trkpt>
      <trkpt lat="44.42033" lon="3.75022">
        <ele>1543</ele>
        <time>2009-07-10T10:43:25Z</time>
      </trkpt>
      <trkpt lat="44.4201" lon="3.75031">
        <ele>1539</ele>
        <time>2009-07-10T10:43:30Z</time>
      </trkpt>
      <trkpt lat="44.41999" lon="3.75037">
        <ele>1537</ele>
        <time>2009-07-10T10:43:33Z</time>
      </trkpt>
      <trkpt lat="44.42" lon="3.75025">
        <ele>1535</ele>
        <time>2009-07-10T10:43:38Z</time>
      </trkpt>
      <trkpt lat="44.42003" lon="3.75015">
        <ele>1532</ele>
        <time>2009-07-10T10:43:42Z</time>
      </trkpt>
      <trkpt lat="44.41998" lon="3.7501">
        <ele>1531</ele>
        <time>2009-07-10T10:43:46Z</time>
      </trkpt>
      <trkpt lat="44.41982" lon="3.75017">
        <ele>1527</ele>
        <time>2009-07-10T10:43:52Z</time>
      </trkpt>
      <trkpt lat="44.41974" lon="3.75022">
        <ele>1526</ele>
        <time>2009-07-10T10:43:54Z</time>
      </trkpt>
      <trkpt lat="44.41968" lon="3.75026">
        <ele>1525</ele>
        <time>2009-07-10T10:43:56Z</time>
      </trkpt>
      <trkpt lat="44.41956" lon="3.7503">
        <ele>1523</ele>
        <time>2009-07-10T10:44:00Z</time>
      </trkpt>
      <trkpt lat="44.41937" lon="3.75043">
        <ele>1519</ele>
        <time>2009-07-10T10:44:06Z</time>
      </trkpt>
      <trkpt lat="44.41934" lon="3.75045">
        <ele>1519</ele>
        <time>2009-07-10T10:44:07Z</time>
      </trkpt>
      <trkpt lat="44.41929" lon="3.75047">
        <ele>1518</ele>
        <time>2009-07-10T10:44:09Z</time>
      </trkpt>
      <trkpt lat="44.41929" lon="3.75039">
        <ele>1515</ele>
        <time>2009-07-10T10:44:14Z</time>
      </trkpt>
      <trkpt lat="44.4193" lon="3.75035">
        <ele>1513</ele>
        <time>2009-07-10T10:44:17Z</time>
      </trkpt>
      <trkpt lat="44.41921" lon="3.75036">
        <ele>1511</ele>
        <time>2009-07-10T10:44:22Z</time>
      </trkpt>
      <trkpt lat="44.41916" lon="3.75031">
        <ele>1510</ele>
        <time>2009-07-10T10:44:29Z</time>
      </trkpt>
      <trkpt lat="44.41918" lon="3.75014">
        <ele>1507</ele>
        <time>2009-07-10T10:44:36Z</time>
      </trkpt>
      <trkpt lat="44.41906" lon="3.75017">
        <ele>1504</ele>
        <time>2009-07-10T10:44:41Z</time>
      </trkpt>
      <trkpt lat="44.41904" lon="3.75016">
        <ele>1503</ele>
        <time>2009-07-10T10:44:43Z</time>
      </trkpt>
      <trkpt lat="44.4191" lon="3.75002">
        <ele>1500</ele>
        <time>2009-07-10T10:44:47Z</time>
      </trkpt>
      <trkpt lat="44.41923" lon="3.74974">
        <ele>1495</ele>
        <time>2009-07-10T10:44:53Z</time>
      </trkpt>
      <trkpt lat="44.41922" lon="3.74967">
        <ele>1496</ele>
        <time>2009-07-10T10:44:55Z</time>
      </trkpt>
      <trkpt lat="44.41913" lon="3.7497">
        <ele>1494</ele>
        <time>2009-07-10T10:44:59Z</time>
      </trkpt>
      <trkpt lat="44.41902" lon="3.74976">
        <ele>1491</ele>
        <time>2009-07-10T10:45:03Z</time>
      </trkpt>
      <trkpt lat="44.41905" lon="3.74965">
        <ele>1490</ele>
        <time>2009-07-10T10:45:06Z</time>
      </trkpt>
      <trkpt lat="44.41902" lon="3.74935">
        <ele>1488</ele>
        <time>2009-07-10T10:45:15Z</time>
      </trkpt>
      <trkpt lat="44.41891" lon="3.74944">
        <ele>1488</ele>
        <time>2009-07-10T10:46:23Z</time>
      </trkpt>
      <trkpt lat="44.41883" lon="3.74945">
        <ele>1487</ele>
        <time>2009-07-10T10:46:29Z</time>
      </trkpt>
      <trkpt lat="44.41875" lon="3.74946">
        <ele>1484</ele>
        <time>2009-07-10T10:46:33Z</time>
      </trkpt>
      <trkpt lat="44.41867" lon="3.74945">
        <ele>1481</ele>
        <time>2009-07-10T10:46:36Z</time>
      </trkpt>
      <trkpt lat="44.41863" lon="3.74943">
        <ele>1479</ele>
        <time>2009-07-10T10:46:37Z</time>
      </trkpt>
      <trkpt lat="44.41848" lon="3.74944">
        <ele>1477</ele>
        <time>2009-07-10T10:46:41Z</time>
      </trkpt>
      <trkpt lat="44.41837" lon="3.7495">
        <ele>1476</ele>
        <time>2009-07-10T10:46:45Z</time>
      </trkpt>
      <trkpt lat="44.41822" lon="3.74964">
        <ele>1472</ele>
        <time>2009-07-10T10:46:50Z</time>
      </trkpt>
      <trkpt lat="44.41815" lon="3.74966">
        <ele>1472</ele>
        <time>2009-07-10T10:46:51Z</time>
      </trkpt>
      <trkpt lat="44.41789" lon="3.74986">
        <ele>1469</ele>
        <time>2009-07-10T10:46:58Z</time>
      </trkpt>
      <trkpt lat="44.41776" lon="3.74988">
        <ele>1465</ele>
        <time>2009-07-10T10:47:02Z</time>
      </trkpt>
      <trkpt lat="44.41763" lon="3.74993">
        <ele>1462</ele>
        <time>2009-07-10T10:47:06Z</time>
      </trkpt>
      <trkpt lat="44.4176" lon="3.74995">
        <ele>1462</ele>
        <time>2009-07-10T10:47:07Z</time>
      </trkpt>
      <trkpt lat="44.41753" lon="3.74998">
        <ele>1461</ele>
        <time>2009-07-10T10:47:09Z</time>
      </trkpt>
      <trkpt lat="44.41745" lon="3.74986">
        <ele>1458</ele>
        <time>2009-07-10T10:47:14Z</time>
      </trkpt>
      <trkpt lat="44.41743" lon="3.74967">
        <ele>1455</ele>
        <time>2009-07-10T10:47:18Z</time>
      </trkpt>
      <trkpt lat="44.41726" lon="3.74969">
        <ele>1454</ele>
        <time>2009-07-10T10:47:26Z</time>
      </trkpt>
      <trkpt lat="44.41698" lon="3.74987">
        <ele>1454</ele>
        <time>2009-07-10T10:47:38Z</time>
      </trkpt>
      <trkpt lat="44.4168" lon="3.74987">
        <ele>1451</ele>
        <time>2009-07-10T10:47:45Z</time>
      </trkpt>
      <trkpt lat="44.41671" lon="3.74985">
        <ele>1448</ele>
        <time>2009-07-10T10:47:48Z</time>
      </trkpt>
      <trkpt lat="44.41651" lon="3.74993">
        <ele>1445</ele>
        <time>2009-07-10T10:47:54Z</time>
      </trkpt>
      <trkpt lat="44.41634" lon="3.74996">
        <ele>1442</ele>
        <time>2009-07-10T10:47:59Z</time>
      </trkpt>
      <trkpt lat="44.41631" lon="3.74995">
        <ele>1442</ele>
        <time>2009-07-10T10:48:00Z</time>
      </trkpt>
      <trkpt lat="44.41623" lon="3.74994">
        <ele>1440</ele>
        <time>2009-07-10T10:48:02Z</time>
      </trkpt>
      <trkpt lat="44.416" lon="3.74998">
        <ele>1437</ele>
        <time>2009-07-10T10:48:08Z</time>
      </trkpt>
      <trkpt lat="44.41592" lon="3.75">
        <ele>1436</ele>
        <time>2009-07-10T10:48:11Z</time>
      </trkpt>
      <trkpt lat="44.41582" lon="3.75002">
        <ele>1432</ele>
        <time>2009-07-10T10:48:14Z</time>
      </trkpt>
      <trkpt lat="44.41578" lon="3.75002">
        <ele>1432</ele>
        <time>2009-07-10T10:48:15Z</time>
      </trkpt>
      <trkpt lat="44.41573" lon="3.74998">
        <ele>1431</ele>
        <time>2009-07-10T10:48:17Z</time>
      </trkpt>
      <trkpt lat="44.4157" lon="3.74996">
        <ele>1430</ele>
        <time>2009-07-10T10:48:18Z</time>
      </trkpt>
      <trkpt lat="44.41556" lon="3.74991">
        <ele>1429</ele>
        <time>2009-07-10T10:48:24Z</time>
      </trkpt>
      <trkpt lat="44.41549" lon="3.74994">
        <ele>1428</ele>
        <time>2009-07-10T10:48:39Z</time>
      </trkpt>
      <trkpt lat="44.41542" lon="3.74994">
        <ele>1427</ele>
        <time>2009-07-10T10:48:56Z</time>
      </trkpt>
      <trkpt lat="44.41541" lon="3.74994">
        <ele>1426</ele>
        <time>2009-07-10T10:48:59Z</time>
      </trkpt>
      <trkpt lat="44.41535" lon="3.74993">
        <ele>1424</ele>
        <time>2009-07-10T10:49:03Z</time>
      </trkpt>
      <trkpt lat="44.41519" lon="3.7499">
        <ele>1420</ele>
        <time>2009-07-10T10:49:11Z</time>
      </trkpt>
      <trkpt lat="44.4151" lon="3.7499">
        <ele>1416</ele>
        <time>2009-07-10T10:49:14Z</time>
      </trkpt>
      <trkpt lat="44.41507" lon="3.74991">
        <ele>1415</ele>
        <time>2009-07-10T10:49:15Z</time>
      </trkpt>
      <trkpt lat="44.41494" lon="3.74998">
        <ele>1412</ele>
        <time>2009-07-10T10:49:19Z</time>
      </trkpt>
      <trkpt lat="44.41486" lon="3.75002">
        <ele>1411</ele>
        <time>2009-07-10T10:49:22Z</time>
      </trkpt>
      <trkpt lat="44.4148" lon="3.75007">
        <ele>1410</ele>
        <time>2009-07-10T10:49:25Z</time>
      </trkpt>
      <trkpt lat="44.41453" lon="3.75003">
        <ele>1407</ele>
        <time>2009-07-10T10:49:33Z</time>
      </trkpt>
      <trkpt lat="44.4145" lon="3.75002">
        <ele>1406</ele>
        <time>2009-07-10T10:49:34Z</time>
      </trkpt>
      <trkpt lat="44.41447" lon="3.75003">
        <ele>1406</ele>
        <time>2009-07-10T10:49:35Z</time>
      </trkpt>
      <trkpt lat="44.41433" lon="3.7501">
        <ele>1404</ele>
        <time>2009-07-10T10:49:41Z</time>
      </trkpt>
      <trkpt lat="44.41428" lon="3.75012">
        <ele>1402</ele>
        <time>2009-07-10T10:49:43Z</time>
      </trkpt>
      <trkpt lat="44.41402" lon="3.75021">
        <ele>1398</ele>
        <time>2009-07-10T10:49:52Z</time>
      </trkpt>
      <trkpt lat="44.41389" lon="3.75031">
        <ele>1395</ele>
        <time>2009-07-10T10:49:57Z</time>
      </trkpt>
      <trkpt lat="44.41386" lon="3.75033">
        <ele>1395</ele>
        <time>2009-07-10T10:49:58Z</time>
      </trkpt>
      <trkpt lat="44.41382" lon="3.75035">
        <ele>1394</ele>
        <time>2009-07-10T10:50:01Z</time>
      </trkpt>
      <trkpt lat="44.41369" lon="3.75036">
        <ele>1393</ele>
        <time>2009-07-10T10:50:07Z</time>
      </trkpt>
      <trkpt lat="44.41358" lon="3.75038">
        <ele>1391</ele>
        <time>2009-07-10T10:50:10Z</time>
      </trkpt>
      <trkpt lat="44.41323" lon="3.75027">
        <ele>1387</ele>
        <time>2009-07-10T10:50:19Z</time>
      </trkpt>
      <trkpt lat="44.41303" lon="3.75026">
        <ele>1383</ele>
        <time>2009-07-10T10:50:25Z</time>
      </trkpt>
      <trkpt lat="44.41301" lon="3.75027">
        <ele>1384</ele>
        <time>2009-07-10T10:50:26Z</time>
      </trkpt>
      <trkpt lat="44.4127" lon="3.75025">
        <ele>1381</ele>
        <time>2009-07-10T10:50:36Z</time>
      </trkpt>
      <trkpt lat="44.41262" lon="3.75027">
        <ele>1379</ele>
        <time>2009-07-10T10:50:38Z</time>
      </trkpt>
      <trkpt lat="44.41257" lon="3.75031">
        <ele>1379</ele>
        <time>2009-07-10T10:50:47Z</time>
      </trkpt>
      <trkpt lat="44.41257" lon="3.75031">
        <ele>1378</ele>
        <time>2009-07-10T10:53:03Z</time>
      </trkpt>
      <trkpt lat="44.41242" lon="3.75052">
        <ele>1377</ele>
        <time>2009-07-10T10:54:31Z</time>
      </trkpt>
      <trkpt lat="44.41249" lon="3.75042">
        <ele>1375</ele>
        <time>2009-07-10T10:55:40Z</time>
      </trkpt>
      <trkpt lat="44.41245" lon="3.75061">
        <ele>1373</ele>
        <time>2009-07-10T10:56:35Z</time>
      </trkpt>
      <trkpt lat="44.41249" lon="3.75042">
        <ele>1373</ele>
        <time>2009-07-10T10:56:58Z</time>
      </trkpt>
      <trkpt lat="44.41254" lon="3.75032">
        <ele>1373</ele>
        <time>2009-07-10T10:59:03Z</time>
      </trkpt>
      <trkpt lat="44.41253" lon="3.75033">
        <ele>1373</ele>
        <time>2009-07-10T10:59:46Z</time>
      </trkpt>
      <trkpt lat="44.41245" lon="3.75033">
        <ele>1372</ele>
        <time>2009-07-10T11:01:25Z</time>
      </trkpt>
      <trkpt lat="44.4125" lon="3.75027">
        <ele>1373</ele>
        <time>2009-07-10T11:03:20Z</time>
      </trkpt>
      <trkpt lat="44.4125" lon="3.75027">
        <ele>1373</ele>
        <time>2009-07-10T11:03:23Z</time>
      </trkpt>
      <trkpt lat="44.41227" lon="3.75026">
        <ele>1371</ele>
        <time>2009-07-10T11:03:32Z</time>
      </trkpt>
      <trkpt lat="44.41218" lon="3.75031">
        <ele>1367</ele>
        <time>2009-07-10T11:03:35Z</time>
      </trkpt>
      <trkpt lat="44.41202" lon="3.75039">
        <ele>1365</ele>
        <time>2009-07-10T11:03:40Z</time>
      </trkpt>
      <trkpt lat="44.41188" lon="3.75042">
        <ele>1363</ele>
        <time>2009-07-10T11:03:43Z</time>
      </trkpt>
      <trkpt lat="44.4117" lon="3.75034">
        <ele>1361</ele>
        <time>2009-07-10T11:03:48Z</time>
      </trkpt>
      <trkpt lat="44.41164" lon="3.75033">
        <ele>1360</ele>
        <time>2009-07-10T11:03:50Z</time>
      </trkpt>
      <trkpt lat="44.41159" lon="3.75034">
        <ele>1358</ele>
        <time>2009-07-10T11:03:52Z</time>
      </trkpt>
      <trkpt lat="44.41146" lon="3.75036">
        <ele>1358</ele>
        <time>2009-07-10T11:03:55Z</time>
      </trkpt>
      <trkpt lat="44.4113" lon="3.75037">
        <ele>1356</ele>
        <time>2009-07-10T11:03:59Z</time>
      </trkpt>
      <trkpt lat="44.4112" lon="3.75043">
        <ele>1354</ele>
        <time>2009-07-10T11:04:02Z</time>
      </trkpt>
      <trkpt lat="44.41112" lon="3.75045">
        <ele>1352</ele>
        <time>2009-07-10T11:04:04Z</time>
      </trkpt>
      <trkpt lat="44.41105" lon="3.75049">
        <ele>1351</ele>
        <time>2009-07-10T11:04:06Z</time>
      </trkpt>
      <trkpt lat="44.41088" lon="3.75046">
        <ele>1347</ele>
        <time>2009-07-10T11:04:11Z</time>
      </trkpt>
      <trkpt lat="44.41066" lon="3.75048">
        <ele>1345</ele>
        <time>2009-07-10T11:04:15Z</time>
      </trkpt>
      <trkpt lat="44.41056" lon="3.7505">
        <ele>1345</ele>
        <time>2009-07-10T11:04:17Z</time>
      </trkpt>
      <trkpt lat="44.41047" lon="3.75052">
        <ele>1343</ele>
        <time>2009-07-10T11:04:19Z</time>
      </trkpt>
      <trkpt lat="44.41018" lon="3.75055">
        <ele>1339</ele>
        <time>2009-07-10T11:04:25Z</time>
      </trkpt>
      <trkpt lat="44.41011" lon="3.75052">
        <ele>1338</ele>
        <time>2009-07-10T11:04:28Z</time>
      </trkpt>
      <trkpt lat="44.41" lon="3.75051">
        <ele>1337</ele>
        <time>2009-07-10T11:04:31Z</time>
      </trkpt>
      <trkpt lat="44.40982" lon="3.75059">
        <ele>1334</ele>
        <time>2009-07-10T11:04:37Z</time>
      </trkpt>
      <trkpt lat="44.40971" lon="3.75048">
        <ele>1331</ele>
        <time>2009-07-10T11:04:41Z</time>
      </trkpt>
      <trkpt lat="44.40969" lon="3.75045">
        <ele>1331</ele>
        <time>2009-07-10T11:04:42Z</time>
      </trkpt>
      <trkpt lat="44.40964" lon="3.75043">
        <ele>1330</ele>
        <time>2009-07-10T11:04:44Z</time>
      </trkpt>
      <trkpt lat="44.40949" lon="3.75054">
        <ele>1328</ele>
        <time>2009-07-10T11:04:49Z</time>
      </trkpt>
      <trkpt lat="44.40931" lon="3.75059">
        <ele>1326</ele>
        <time>2009-07-10T11:04:54Z</time>
      </trkpt>
      <trkpt lat="44.4092" lon="3.75074">
        <ele>1324</ele>
        <time>2009-07-10T11:05:04Z</time>
      </trkpt>
      <trkpt lat="44.4091" lon="3.75087">
        <ele>1322</ele>
        <time>2009-07-10T11:05:37Z</time>
      </trkpt>
      <trkpt lat="44.40898" lon="3.75088">
        <ele>1319</ele>
        <time>2009-07-10T11:05:41Z</time>
      </trkpt>
      <trkpt lat="44.40885" lon="3.7508">
        <ele>1317</ele>
        <time>2009-07-10T11:05:44Z</time>
      </trkpt>
      <trkpt lat="44.4088" lon="3.75091">
        <ele>1310</ele>
      </trkpt>
      <trkpt lat="44.4088" lon="3.75091">
        <ele>1310</ele>
      </trkpt>
      <trkpt lat="44.40813" lon="3.75378">
        <ele>1334</ele>
      </trkpt>
      <trkpt lat="44.40819" lon="3.75441">
        <ele>1341</ele>
      </trkpt>
      <trkpt lat="44.40763" lon="3.75634">
        <ele>1357</ele>
      </trkpt>
      <trkpt lat="44.40577" lon="3.7572">
        <ele>1371</ele>
      </trkpt>
      <trkpt lat="44.405" lon="3.75831">
        <ele>1382</ele>
      </trkpt>
      <trkpt lat="44.40466" lon="3.75984">
        <ele>1396</ele>
      </trkpt>
      <trkpt lat="44.40396" lon="3.76017">
        <ele>1393</ele>
      </trkpt>
      <trkpt lat="44.40325" lon="3.76137">
        <ele>1404</ele>
      </trkpt>
      <trkpt lat="44.40322" lon="3.76203">
        <ele>1407</ele>
      </trkpt>
      <trkpt lat="44.40412" lon="3.76315">
        <ele>1412</ele>
      </trkpt>
      <trkpt lat="44.40496" lon="3.76299">
        <ele>1418</ele>
      </trkpt>
      <trkpt lat="44.40534" lon="3.76318">
        <ele>1419</ele>
      </trkpt>
      <trkpt lat="44.40612" lon="3.76327">
        <ele>1430</ele>
      </trkpt>
      <trkpt lat="44.4065" lon="3.76393">
        <ele>1445</ele>
      </trkpt>
      <trkpt lat="44.40589" lon="3.76571">
        <ele>1441</ele>
      </trkpt>
      <trkpt lat="44.40716" lon="3.76615">
        <ele>1448</ele>
      </trkpt>
      <trkpt lat="44.40834" lon="3.76721">
        <ele>1462</ele>
      </trkpt>
      <trkpt lat="44.40879" lon="3.76948">
        <ele>1467</ele>
      </trkpt>
      <trkpt lat="44.40969" lon="3.77095">
        <ele>1468</ele>
      </trkpt>
      <trkpt lat="44.41096" lon="3.77132">
        <ele>1475</ele>
      </trkpt>
      <trkpt lat="44.41259" lon="3.77118">
        <ele>1487</ele>
      </trkpt>
      <trkpt lat="44.41395" lon="3.7719">
        <ele>1499</ele>
      </trkpt>
      <trkpt lat="44.41456" lon="3.77355">
        <ele>1505</ele>
      </trkpt>
      <trkpt lat="44.41592" lon="3.77255">
        <ele>1512</ele>
      </trkpt>
      <trkpt lat="44.41694" lon="3.77204">
        <ele>1513</ele>
      </trkpt>
      <trkpt lat="44.41814" lon="3.77107">
        <ele>1518</ele>
      </trkpt>
      <trkpt lat="44.41993" lon="3.77024">
        <ele>1529</ele>
      </trkpt>
      <trkpt lat="44.42243" lon="3.77014">
        <ele>1537</ele>
      </trkpt>
      <trkpt lat="44.42329" lon="3.7696">
        <ele>1544</ele>
      </trkpt>
      <trkpt lat="44.42372" lon="3.7692">
        <ele>1543</ele>
      </trkpt>
      <trkpt lat="44.42407" lon="3.77006">
        <ele>1542</ele>
      </trkpt>
      <trkpt lat="44.4245" lon="3.77173">
        <ele>1548</ele>
      </trkpt>
      <trkpt lat="44.42469" lon="3.77199">
        <ele>1550</ele>
      </trkpt>
      <trkpt lat="44.42384" lon="3.77401">
        <ele>1551</ele>
      </trkpt>
      <trkpt lat="44.42357" lon="3.7751">
        <ele>1553</ele>
      </trkpt>
      <trkpt lat="44.42288" lon="3.77671">
        <ele>1556</ele>
      </trkpt>
      <trkpt lat="44.42246" lon="3.77742">
        <ele>1561</ele>
      </trkpt>
      <trkpt lat="44.42185" lon="3.77838">
        <ele>1568</ele>
      </trkpt>
      <trkpt lat="44.42091" lon="3.77926">
        <ele>1566</ele>
      </trkpt>
      <trkpt lat="44.42012" lon="3.77997">
        <ele>1562</ele>
      </trkpt>
      <trkpt lat="44.41961" lon="3.78083">
        <ele>1564</ele>
      </trkpt>
      <trkpt lat="44.4191" lon="3.78189">
        <ele>1567</ele>
      </trkpt>
      <trkpt lat="44.41799" lon="3.7822">
        <ele>1560</ele>
      </trkpt>
      <trkpt lat="44.41718" lon="3.7829">
        <ele>1561</ele>
      </trkpt>
      <trkpt lat="44.41615" lon="3.78366">
        <ele>1564</ele>
      </trkpt>
      <trkpt lat="44.41476" lon="3.78391">
        <ele>1568</ele>
      </trkpt>
      <trkpt lat="44.41372" lon="3.78448">
        <ele>1573</ele>
      </trkpt>
      <trkpt lat="44.41277" lon="3.78486">
        <ele>1575</ele>
      </trkpt>
      <trkpt lat="44.41082" lon="3.7844">
        <ele>1573</ele>
      </trkpt>
      <trkpt lat="44.41042" lon="3.78383">
        <ele>1569</ele>
      </trkpt>
      <trkpt lat="44.40973" lon="3.78334">
        <ele>1566</ele>
      </trkpt>
      <trkpt lat="44.40813" lon="3.78364">
        <ele>1559</ele>
      </trkpt>
      <trkpt lat="44.40713" lon="3.78434">
        <ele>1558</ele>
      </trkpt>
      <trkpt lat="44.40615" lon="3.78516">
        <ele>1550</ele>
      </trkpt>
      <trkpt lat="44.40547" lon="3.78558">
        <ele>1545</ele>
      </trkpt>
      <trkpt lat="44.40509" lon="3.7856">
        <ele>1540</ele>
      </trkpt>
      <trkpt lat="44.40466" lon="3.78572">
        <ele>1535</ele>
      </trkpt>
      <trkpt lat="44.4045" lon="3.78596">
        <ele>1535</ele>
      </trkpt>
      <trkpt lat="44.40425" lon="3.7858">
        <ele>1531</ele>
      </trkpt>
      <trkpt lat="44.40396" lon="3.78576">
        <ele>1529</ele>
      </trkpt>
      <trkpt lat="44.40347" lon="3.78556">
        <ele>1524</ele>
      </trkpt>
      <trkpt lat="44.40281" lon="3.78586">
        <ele>1512</ele>
      </trkpt>
      <trkpt lat="44.40194" lon="3.78596">
        <ele>1497</ele>
      </trkpt>
      <trkpt lat="44.40131" lon="3.78591">
        <ele>1495</ele>
      </trkpt>
      <trkpt lat="44.40003" lon="3.78707">
        <ele>1473</ele>
      </trkpt>
      <trkpt lat="44.40043" lon="3.78765">
        <ele>1465</ele>
      </trkpt>
      <trkpt lat="44.40005" lon="3.78914">
        <ele>1464</ele>
      </trkpt>
      <trkpt lat="44.39942" lon="3.78919">
        <ele>1452</ele>
      </trkpt>
      <trkpt lat="44.39879" lon="3.78927">
        <ele>1439</ele>
      </trkpt>
      <trkpt lat="44.39822" lon="3.78941">
        <ele>1430</ele>
      </trkpt>
      <trkpt lat="44.39559" lon="3.79107">
        <ele>1406</ele>
      </trkpt>
      <trkpt lat="44.39487" lon="3.79127">
        <ele>1391</ele>
      </trkpt>
      <trkpt lat="44.39374" lon="3.79218">
        <ele>1383</ele>
      </trkpt>
      <trkpt lat="44.39306" lon="3.79226">
        <ele>1371</ele>
      </trkpt>
      <trkpt lat="44.3922" lon="3.79248">
        <ele>1361</ele>
      </trkpt>
      <trkpt lat="44.392" lon="3.79273">
        <ele>1359</ele>
      </trkpt>
      <trkpt lat="44.39126" lon="3.7923">
        <ele>1350</ele>
      </trkpt>
      <trkpt lat="44.39066" lon="3.7921">
        <ele>1346</ele>
      </trkpt>
      <trkpt lat="44.39003" lon="3.79208">
        <ele>1346</ele>
      </trkpt>
      <trkpt lat="44.38917" lon="3.79209">
        <ele>1348</ele>
      </trkpt>
      <trkpt lat="44.38845" lon="3.79207">
        <ele>1348</ele>
      </trkpt>
      <trkpt lat="44.38778" lon="3.79196">
        <ele>1347</ele>
      </trkpt>
      <trkpt lat="44.38668" lon="3.7919">
        <ele>1338</ele>
      </trkpt>
      <trkpt lat="44.38569" lon="3.79197">
        <ele>1328</ele>
      </trkpt>
      <trkpt lat="44.38434" lon="3.79191">
        <ele>1317</ele>
      </trkpt>
      <trkpt lat="44.38347" lon="3.79173">
        <ele>1314</ele>
      </trkpt>
      <trkpt lat="44.38266" lon="3.79124">
        <ele>1311</ele>
      </trkpt>
      <trkpt lat="44.38192" lon="3.79137">
        <ele>1310</ele>
      </trkpt>
      <trkpt lat="44.38084" lon="3.79119">
        <ele>1305</ele>
      </trkpt>
      <trkpt lat="44.38039" lon="3.79133">
        <ele>1303</ele>
      </trkpt>
      <trkpt lat="44.37984" lon="3.79191">
        <ele>1297</ele>
      </trkpt>
      <trkpt lat="44.37837" lon="3.79247">
        <ele>1289</ele>
      </trkpt>
      <trkpt lat="44.37745" lon="3.79298">
        <ele>1291</ele>
      </trkpt>
      <trkpt lat="44.37653" lon="3.79286">
        <ele>1293</ele>
      </trkpt>
      <trkpt lat="44.37581" lon="3.79225">
        <ele>1297</ele>
      </trkpt>
      <trkpt lat="44.37534" lon="3.79205">
        <ele>1297</ele>
      </trkpt>
      <trkpt lat="44.37386" lon="3.79229">
        <ele>1295</ele>
      </trkpt>
      <trkpt lat="44.37264" lon="3.79229">
        <ele>1293</ele>
      </trkpt>
      <trkpt lat="44.37219" lon="3.79071">
        <ele>1267</ele>
      </trkpt>
      <trkpt lat="44.37323" lon="3.79049">
        <ele>1265</ele>
      </trkpt>
      <trkpt lat="44.37313" lon="3.78977">
        <ele>1264</ele>
      </trkpt>
      <trkpt lat="44.3725" lon="3.78931">
        <ele>1257</ele>
      </trkpt>
      <trkpt lat="44.37204" lon="3.78836">
        <ele>1268</ele>
      </trkpt>
      <trkpt lat="44.37197" lon="3.78732">
        <ele>1274</ele>
      </trkpt>
      <trkpt lat="44.37231" lon="3.78536">
        <ele>1277</ele>
      </trkpt>
      <trkpt lat="44.37227" lon="3.78454">
        <ele>1266</ele>
      </trkpt>
      <trkpt lat="44.37288" lon="3.78271">
        <ele>1267</ele>
      </trkpt>
      <trkpt lat="44.37328" lon="3.78168">
        <ele>1273</ele>
      </trkpt>
      <trkpt lat="44.37316" lon="3.7808">
        <ele>1257</ele>
      </trkpt>
      <trkpt lat="44.37353" lon="3.77962">
        <ele>1255</ele>
      </trkpt>
      <trkpt lat="44.37388" lon="3.77894">
        <ele>1255</ele>
      </trkpt>
      <trkpt lat="44.37447" lon="3.77805">
        <ele>1258</ele>
      </trkpt>
      <trkpt lat="44.3743" lon="3.77766">
        <ele>1249</ele>
      </trkpt>
      <trkpt lat="44.37401" lon="3.77744">
        <ele>1240</ele>
      </trkpt>
    </trkseg>
  </trk>
</gpx>